Latitude: N 50° 09' 49" Longitude: W 05° 11' 53" Elevation: 168m ASL

There are 13 visitors online

Adverts

<- Previous Day | Today | Next Day ->

All Data for 13 January 2018

Time
A - D
Temp
A - D
Dew Point
A - D
Humidity
A - D
Pressure
A - D
Wind
A - D
Wind Dir Gust
A - D
Rain Rate
A - D
Rain Total
00:00 7.6 7.5 99 1014.9 13.6 SE 16.8 0.0 0.0
00:01 7.6 7.5 99 1014.8 13.6 SE 16.8 0.0 0.0
00:02 7.6 7.5 99 1014.9 9.2 SE 16.8 0.0 0.0
00:04 7.6 7.5 99 1014.9 13.0 SE 16.8 0.0 0.0
00:05 7.6 7.5 99 1014.7 12.1 SE 16.8 0.0 0.0
00:07 7.5 7.4 99 1014.9 16.8 SE 17.4 0.0 0.0
00:08 7.6 7.5 99 1014.7 13.0 E 17.4 0.0 0.0
00:10 7.6 7.5 99 1014.8 15.9 SE 17.4 0.0 0.0
00:11 7.6 7.5 99 1014.7 15.2 SE 17.4 0.0 0.0
00:12 7.5 7.4 99 1014.7 9.8 E 17.4 0.0 0.0
00:13 7.6 7.5 99 1014.7 16.8 E 17.4 0.0 0.0
00:14 7.6 7.5 99 1014.7 11.4 SE 17.4 0.0 0.0
00:15 7.6 7.5 99 1014.7 12.1 SE 17.4 0.0 0.0
00:16 7.5 7.4 99 1014.7 17.4 SE 17.4 0.0 0.0
00:17 7.5 7.4 99 1014.7 19.0 SE 19.0 0.0 0.0
00:18 7.5 7.4 99 1014.7 13.0 SE 19.0 0.0 0.0
00:20 7.5 7.4 99 1014.7 13.6 SE 19.0 0.0 0.0
00:21 7.5 7.4 99 1014.7 13.6 SE 19.0 0.0 0.0
00:22 7.5 7.4 99 1014.7 19.0 E 19.0 0.0 0.0
00:23 7.5 7.4 99 1014.8 13.0 SE 19.0 0.0 0.0
00:24 7.5 7.4 99 1014.7 22.1 SE 22.1 0.0 0.0
00:25 7.5 7.4 99 1014.8 18.3 SE 22.1 0.0 0.0
00:27 7.5 7.4 99 1014.7 15.9 SE 22.1 0.0 0.0
00:28 7.5 7.4 99 1014.8 15.2 SE 22.1 0.0 0.0
00:29 7.5 7.4 99 1014.8 14.5 SE 22.1 0.0 0.0
00:30 7.5 7.4 99 1014.8 10.7 E 22.1 0.0 0.0
00:31 7.5 7.4 99 1014.8 14.5 SE 22.1 0.0 0.0
00:32 7.5 7.4 99 1014.8 13.6 SE 22.1 0.0 0.0
00:33 7.5 7.4 99 1014.9 13.0 SE 22.1 0.0 0.0
00:34 7.5 7.4 99 1014.8 13.6 SE 22.1 0.0 0.0
00:35 7.5 7.4 99 1014.7 8.3 E 20.6 0.0 0.0
00:37 7.5 7.4 99 1014.7 11.4 SE 20.6 0.0 0.0
00:38 7.5 7.4 99 1014.7 10.7 SE 20.6 0.0 0.0
00:39 7.4 7.3 99 1014.7 15.9 S 15.9 0.0 0.0
00:40 7.5 7.4 99 1014.7 15.2 E 15.9 0.0 0.0
00:41 7.4 7.3 99 1014.7 13.0 SE 15.9 0.0 0.0
00:42 7.4 7.3 99 1014.9 14.5 SE 15.9 0.0 0.0
00:43 7.4 7.3 99 1014.7 13.0 E 15.9 0.0 0.0
00:44 7.4 7.3 99 1014.7 15.2 S 15.9 0.0 0.0
00:45 7.4 7.3 99 1014.6 9.8 SE 15.9 0.0 0.0
00:46 7.4 7.3 99 1014.7 10.7 SE 15.9 0.0 0.0
00:47 7.4 7.3 99 1014.7 7.6 SE 15.9 0.0 0.0
00:48 7.4 7.3 99 1014.6 11.4 SE 15.9 0.0 0.0
00:49 7.4 7.3 99 1014.7 14.5 SE 15.9 0.0 0.0
00:50 7.4 7.3 99 1014.6 10.7 NE 15.2 0.0 0.0
00:51 7.4 7.3 99 1014.6 7.6 SE 15.2 0.0 0.0
00:52 7.4 7.3 99 1014.7 15.9 SE 15.9 0.0 0.0
00:53 7.4 7.3 99 1014.5 11.4 SE 15.9 0.0 0.0
00:54 7.4 7.3 99 1014.5 9.8 SE 15.9 0.0 0.0
00:55 7.4 7.3 99 1014.6 15.2 E 15.9 0.0 0.0
00:56 7.4 7.3 99 1014.5 13.6 SE 18.3 0.0 0.0
00:57 7.4 7.3 99 1014.4 10.7 SE 18.3 0.0 0.0
00:58 7.4 7.3 99 1014.5 10.7 SE 18.3 0.0 0.0
01:00 7.4 7.3 99 1014.3 13.0 SE 18.3 0.0 0.0
01:01 7.4 7.3 99 1014.3 13.0 SE 18.3 0.0 0.0
01:02 7.4 7.3 99 1014.3 17.4 SE 18.3 0.0 0.0
01:03 7.4 7.3 99 1014.4 16.8 SE 19.7 0.0 0.0
01:04 7.4 7.3 99 1014.5 13.6 SE 19.7 0.0 0.0
01:05 7.4 7.3 99 1014.3 9.8 SE 19.7 0.0 0.0
01:06 7.4 7.3 99 1014.5 15.9 SE 19.7 0.0 0.0
01:08 7.4 7.3 99 1014.3 13.0 SE 19.7 0.0 0.0
01:09 7.4 7.3 99 1014.3 15.2 E 19.7 0.0 0.0
01:10 7.4 7.3 99 1014.3 16.8 SE 19.7 0.0 0.0
01:11 7.4 7.3 99 1014.3 15.9 E 19.7 0.0 0.0
01:12 7.4 7.3 99 1014.2 11.4 SE 19.7 0.0 0.0
01:14 7.4 7.3 99 1014.2 15.2 SE 16.8 0.0 0.0
01:15 7.4 7.3 99 1014.3 13.0 SE 16.8 0.0 0.0
01:16 7.4 7.3 99 1014.3 13.6 S 16.8 0.0 0.0
01:17 7.4 7.3 99 1014.5 14.5 SE 16.8 0.0 0.0
01:18 7.4 7.3 99 1014.5 13.6 E 16.8 0.0 0.0
01:19 7.4 7.3 99 1014.4 14.5 E 16.8 0.0 0.0
01:20 7.4 7.3 99 1014.3 12.1 SE 15.9 0.0 0.0
01:21 7.4 7.3 99 1014.2 17.4 E 17.4 0.0 0.0
01:22 7.4 7.3 99 1014.2 19.0 SE 19.0 0.0 0.0
01:23 7.4 7.3 99 1014.2 13.6 E 19.0 0.0 0.0
01:24 7.4 7.3 99 1014.2 13.0 SE 19.0 0.0 0.0
01:25 7.4 7.3 99 1014.3 13.0 SE 19.0 0.0 0.0
01:26 7.4 7.3 99 1014.2 15.2 E 19.0 0.0 0.0
01:27 7.4 7.3 99 1014.1 19.0 SE 19.0 0.0 0.0
01:29 7.4 7.3 99 1014.2 12.1 SE 19.0 0.0 0.0
01:30 7.4 7.3 99 1014.1 15.2 SE 19.0 0.0 0.0
01:31 7.4 7.3 99 1014.0 13.6 SE 19.0 0.0 0.0
01:32 7.4 7.3 99 1013.9 17.4 E 19.7 0.0 0.0
01:33 7.4 7.3 99 1013.9 11.4 SE 19.7 0.0 0.0
01:35 7.4 7.3 99 1013.9 17.4 SE 19.7 0.0 0.0
01:36 7.4 7.3 99 1013.9 14.5 SE 19.7 0.0 0.0
01:37 7.4 7.3 99 1013.9 20.6 SE 20.6 0.0 0.0
01:38 7.4 7.3 99 1013.9 19.0 SE 20.6 0.0 0.0
01:39 7.4 7.3 99 1013.8 16.8 SE 20.6 0.0 0.0
01:41 7.4 7.3 99 1013.8 14.5 E 20.6 0.0 0.0
01:42 7.4 7.3 99 1013.9 19.7 SE 20.6 0.0 0.0
01:43 7.4 7.3 99 1013.9 15.9 SE 20.6 0.0 0.0
01:44 7.4 7.3 99 1013.8 19.0 SE 20.6 0.0 0.0
01:45 7.4 7.3 99 1013.7 16.8 NW 26.6 0.0 0.0
01:46 7.4 7.3 99 1013.7 15.9 SE 26.6 0.0 0.0
01:47 7.4 7.3 99 1013.7 11.4 SE 26.6 0.0 0.0
01:48 7.3 7.2 99 1013.6 14.5 SE 26.6 0.0 0.0
01:49 7.4 7.3 99 1013.6 13.6 SE 26.6 0.0 0.0
01:50 7.4 7.3 99 1013.6 10.7 SE 26.6 0.0 0.0
01:52 7.4 7.3 99 1013.6 15.2 SE 26.6 0.0 0.0
01:53 7.4 7.3 99 1013.6 13.6 SE 26.6 0.0 0.0
01:54 7.4 7.3 99 1013.5 16.8 SE 26.6 0.0 0.0
01:55 7.3 7.2 99 1013.5 13.6 SE 18.3 0.0 0.0
01:56 7.4 7.3 99 1013.4 16.8 SE 18.3 0.0 0.0
01:57 7.4 7.3 99 1013.4 17.4 SE 18.3 0.0 0.0
01:58 7.4 7.3 99 1013.4 18.3 SE 18.3 0.0 0.0
01:59 7.4 7.3 99 1013.3 20.6 SE 20.6 0.0 0.0
02:00 7.4 7.3 99 1013.5 14.5 SE 20.6 0.0 0.0
02:01 7.4 7.3 99 1013.2 14.5 SE 20.6 0.0 0.0
02:02 7.4 7.3 99 1013.3 14.5 SE 20.6 0.0 0.0
02:04 7.4 7.3 99 1013.4 14.5 SE 20.6 0.0 0.0
02:05 7.4 7.3 99 1013.3 15.2 SE 20.6 0.0 0.0
02:06 7.4 7.3 99 1013.4 14.5 E 20.6 0.0 0.0
02:07 7.4 7.3 99 1013.3 21.3 S 21.3 0.0 0.0
02:09 7.4 7.3 99 1013.3 18.3 SE 21.3 0.0 0.0
02:11 7.4 7.3 99 1013.3 15.2 SE 21.3 0.0 0.0
02:12 7.4 7.3 99 1013.3 20.6 SE 21.3 0.0 0.0
02:13 7.4 7.3 99 1013.3 13.6 SE 21.3 0.0 0.0
02:14 7.4 7.3 99 1013.4 15.2 S 21.3 0.0 0.0
02:15 7.4 7.3 99 1013.3 13.6 SE 21.3 0.0 0.0
02:16 7.4 7.3 99 1013.2 17.4 SE 21.3 0.0 0.0
02:18 7.4 7.3 99 1013.1 13.6 SE 21.3 0.0 0.0
02:19 7.4 7.3 99 1013.2 13.0 SE 21.3 0.0 0.0
02:20 7.4 7.3 99 1013.2 13.6 SE 21.3 0.0 0.0
02:21 7.4 7.3 99 1013.2 15.9 SE 21.3 0.0 0.0
02:22 7.4 7.3 99 1013.2 19.0 SE 21.3 0.0 0.0
02:23 7.4 7.3 99 1013.0 11.4 SE 21.3 0.0 0.0
02:24 7.4 7.3 99 1013.1 13.0 SE 20.6 0.0 0.0
02:25 7.4 7.3 99 1013.1 15.9 S 20.6 0.0 0.0
02:26 7.4 7.3 99 1013.2 15.9 SE 20.6 0.0 0.0
02:27 7.4 7.3 99 1012.8 16.8 SE 20.6 0.0 0.0
02:29 7.4 7.3 99 1012.9 13.6 S 20.6 0.0 0.0
02:30 7.4 7.3 99 1012.9 17.4 SE 20.6 0.0 0.0
02:31 7.4 7.3 99 1013.0 15.9 SE 20.6 0.0 0.0
02:41 7.3 7.2 99 1012.9 13.6 SE 22.1 0.0 0.0
02:43 7.3 7.2 99 1013.0 9.8 SE 22.1 0.0 0.0
02:44 7.3 7.2 99 1012.9 13.0 SE 22.1 0.0 0.0
02:45 7.4 7.3 99 1012.9 12.1 E 22.1 0.0 0.0
02:46 7.3 7.2 99 1012.8 15.9 SE 22.1 0.0 0.0
02:47 7.4 7.3 99 1012.9 13.6 SE 19.0 0.0 0.0
02:48 7.4 7.3 99 1012.7 19.7 E 19.7 0.0 0.0
02:49 7.3 7.2 99 1012.7 18.3 SE 19.7 0.0 0.0
02:51 7.3 7.2 99 1012.7 22.1 NE 22.1 0.0 0.0
02:52 7.3 7.2 99 1012.8 15.9 SE 22.1 0.0 0.0
02:53 7.3 7.2 99 1012.7 11.4 E 22.1 0.0 0.0
02:54 7.3 7.2 99 1012.8 15.2 S 22.1 0.0 0.0
02:55 7.3 7.2 99 1012.8 17.4 SE 22.1 0.0 0.0
02:56 7.4 7.3 99 1012.7 13.0 NE 22.1 0.0 0.0
02:57 7.4 7.3 99 1012.8 20.6 SE 22.1 0.0 0.0
02:59 7.4 7.3 99 1012.7 18.3 S 22.1 0.0 0.0
03:00 7.4 7.3 99 1012.8 16.8 SE 22.1 0.0 0.0
03:01 7.4 7.3 99 1012.7 16.8 SE 22.1 0.0 0.0
03:02 7.4 7.3 99 1012.7 16.8 SE 20.6 0.0 0.0
03:03 7.4 7.3 99 1012.7 16.8 SE 20.6 0.0 0.0
03:04 7.4 7.3 99 1012.6 13.6 E 20.6 0.0 0.0
03:06 7.4 7.3 99 1012.7 16.8 SE 20.6 0.0 0.0
03:07 7.4 7.3 99 1012.5 19.0 NE 20.6 0.0 0.0
03:08 7.4 7.3 99 1012.7 16.8 SE 19.0 0.0 0.0
03:09 7.4 7.3 99 1012.7 18.3 SE 19.0 0.0 0.0
03:10 7.4 7.3 99 1012.5 15.9 SE 19.0 0.0 0.0
03:11 7.4 7.3 99 1012.6 14.5 SE 19.0 0.0 0.0
03:12 7.4 7.3 99 1012.5 15.2 SE 19.0 0.0 0.0
03:13 7.4 7.3 99 1012.7 13.6 SE 19.0 0.0 0.0
03:14 7.4 7.3 99 1012.7 22.1 SE 22.1 0.0 0.0
03:15 7.4 7.3 99 1012.7 22.1 SE 22.1 0.0 0.0
03:16 7.4 7.3 99 1012.5 21.3 E 22.1 0.0 0.0
03:17 7.4 7.3 99 1012.6 18.3 SE 22.1 0.0 0.0
03:19 7.4 7.3 99 1012.5 17.4 SE 22.1 0.0 0.0
03:20 7.4 7.3 99 1012.6 13.6 N 22.1 0.0 0.0
03:21 7.4 7.3 99 1012.6 18.3 SE 22.1 0.0 0.0
03:22 7.4 7.3 99 1012.4 25.9 SE 25.9 0.0 0.0
03:23 7.5 7.4 99 1012.5 16.8 S 25.9 0.0 0.0
03:24 7.4 7.3 99 1012.4 13.6 SE 25.9 0.0 0.0
03:25 7.5 7.4 99 1012.5 12.1 SE 25.9 0.0 0.0
03:26 7.5 7.4 99 1012.6 15.2 SE 25.9 0.0 0.0
03:27 7.4 7.3 99 1012.5 17.4 WSW 25.9 0.0 0.0
03:28 7.5 7.4 99 1012.5 17.4 SE 25.9 0.0 0.1
03:29 7.5 7.4 99 1012.4 13.6 SE 25.9 0.8 0.1
03:30 7.4 7.3 99 1012.3 18.3 E 25.9 0.8 0.1
03:31 7.5 7.4 99 1012.4 16.8 SE 25.9 0.8 0.1
03:32 7.5 7.4 99 1012.6 12.1 SE 22.1 0.8 0.1
03:33 7.5 7.4 99 1012.6 13.6 SE 22.1 0.8 0.1
03:34 7.4 7.3 99 1012.6 13.6 S 22.1 0.0 0.1
03:35 7.4 7.3 99 1012.5 20.6 SE 20.6 0.0 0.1
03:36 7.4 7.3 99 1012.5 15.2 SE 20.6 0.0 0.1
03:37 7.4 7.3 99 1012.5 13.6 SE 20.6 0.0 0.1
03:39 7.4 7.3 99 1012.5 18.3 SE 20.6 0.0 0.1
03:40 7.5 7.4 99 1012.4 12.1 SE 20.6 0.0 0.1
03:41 7.4 7.3 99 1012.4 15.9 SE 20.6 0.8 0.1
03:42 7.5 7.4 99 1012.4 13.0 SE 20.6 0.8 0.1
03:43 7.4 7.3 99 1012.4 16.8 SE 20.6 0.8 0.1
03:44 7.4 7.3 99 1012.5 19.7 SE 20.6 0.8 0.1
03:45 7.4 7.3 99 1012.5 13.6 SE 20.6 0.8 0.1
03:46 7.4 7.3 99 1012.7 19.7 NW 19.7 0.8 0.2
03:47 7.4 7.3 99 1012.6 19.0 SE 19.7 0.8 0.2
03:48 7.4 7.3 99 1012.6 15.2 SE 19.7 0.8 0.3
03:49 7.4 7.3 99 1012.4 19.0 SE 19.7 1.5 0.3
03:50 7.4 7.3 99 1012.4 13.0 S 19.7 1.5 0.3
03:51 7.4 7.3 99 1012.4 12.1 SE 19.7 0.8 0.3
03:52 7.4 7.3 99 1012.5 15.9 E 19.7 0.8 0.3
03:53 7.4 7.3 99 1012.5 13.6 SE 19.7 1.5 0.3
03:54 7.4 7.3 99 1012.4 15.9 SE 19.7 0.8 0.3
03:55 7.4 7.3 99 1012.5 9.2 SE 19.7 0.8 0.3
03:56 7.4 7.3 99 1012.4 13.6 SE 19.0 0.8 0.4
03:57 7.4 7.3 99 1012.6 11.4 SE 19.0 1.5 0.4
03:58 7.4 7.3 99 1012.4 13.6 SE 19.0 0.8 0.4
04:00 7.4 7.3 99 1012.4 16.8 SE 16.8 0.8 0.4
04:01 7.4 7.3 99 1012.5 16.8 SE 16.8 0.8 0.4
04:02 7.4 7.3 99 1012.4 16.8 SE 16.8 0.0 0.4
04:03 7.4 7.3 99 1012.4 16.8 SE 16.8 0.0 0.4
04:04 7.4 7.3 99 1012.4 16.8 SE 16.8 0.0 0.4
04:05 7.3 7.2 99 1012.5 12.1 SE 16.8 0.0 0.5
04:06 7.3 7.2 99 1012.3 14.5 SE 16.8 1.5 0.5
04:08 7.3 7.2 99 1012.5 10.7 S 16.8 2.3 0.6
04:09 7.3 7.2 99 1012.3 15.2 S 16.8 2.3 0.6
04:10 7.3 7.2 99 1012.3 13.0 E 16.8 2.3 0.6
04:11 7.3 7.2 99 1012.3 10.7 E 16.8 0.8 0.6
04:12 7.3 7.2 99 1012.2 12.1 SE 16.8 1.5 0.6
04:13 7.3 7.2 99 1012.2 10.7 W 16.8 0.8 0.6
04:14 7.3 7.2 99 1012.2 19.0 SE 19.0 0.8 0.6
04:15 7.3 7.2 99 1012.0 11.4 SE 19.0 0.8 0.6
04:16 7.3 7.2 99 1012.2 14.5 SE 19.0 0.8 0.7
04:17 7.3 7.2 99 1012.2 16.8 SE 19.0 0.8 0.7
04:18 7.3 7.2 99 1012.0 13.6 SE 19.0 0.8 0.7
04:19 7.3 7.2 99 1012.0 12.1 SE 19.0 1.5 0.8
04:20 7.3 7.2 99 1012.1 12.1 SE 19.0 1.5 0.8
04:21 7.3 7.2 99 1012.2 12.1 SE 19.0 1.5 0.8
04:22 7.3 7.2 99 1012.2 14.5 SE 19.0 0.8 0.8
04:23 7.3 7.2 99 1012.2 12.1 SE 19.0 0.8 0.8
04:24 7.3 7.2 99 1012.1 10.7 SE 16.8 0.0 0.8
04:25 7.3 7.2 99 1012.1 13.0 SE 16.8 0.0 0.8
04:26 7.3 7.2 99 1012.0 14.5 SE 16.8 0.8 0.8
04:28 7.3 7.2 99 1012.2 16.8 SE 17.4 0.8 0.8
04:29 7.3 7.2 99 1012.0 13.6 W 17.4 0.8 0.9
04:30 7.3 7.2 99 1012.1 10.7 SE 17.4 1.5 0.9
04:31 7.3 7.2 99 1011.9 15.2 SE 17.4 0.8 0.9
04:32 7.3 7.2 99 1012.2 9.8 SE 17.4 0.8 0.9
04:33 7.3 7.2 99 1012.1 9.8 SE 17.4 0.8 0.9
04:34 7.3 7.2 99 1012.2 9.8 S 17.4 0.8 0.9
04:35 7.3 7.2 99 1012.2 15.9 SE 17.4 0.8 0.9
04:36 7.3 7.2 99 1012.0 13.0 SE 17.4 0.8 0.9
04:37 7.3 7.2 99 1012.1 11.4 SE 17.4 0.8 0.9
04:38 7.3 7.2 99 1012.0 11.4 E 16.8 1.5 1.0
04:39 7.3 7.2 99 1012.0 12.1 SE 15.9 1.5 1.0
04:40 7.3 7.2 99 1012.0 14.5 SE 15.9 0.8 1.0
04:41 7.3 7.2 99 1011.9 10.7 SE 15.9 0.8 1.0
04:42 7.3 7.2 99 1011.8 10.7 S 15.9 0.8 1.0
04:43 7.3 7.2 99 1011.9 17.4 NE 17.4 0.8 1.1
04:45 7.3 7.2 99 1012.0 13.0 SE 17.4 0.8 1.1
04:46 7.3 7.2 99 1012.1 12.1 SE 17.4 0.8 1.1
04:47 7.3 7.2 99 1012.1 10.7 SE 17.4 1.5 1.1
04:48 7.3 7.2 99 1012.1 8.3 SE 17.4 0.8 1.1
04:49 7.3 7.2 99 1012.1 13.6 SE 17.4 0.8 1.1
04:50 7.3 7.2 99 1012.0 13.6 SE 17.4 0.8 1.1
04:51 7.3 7.2 99 1012.0 8.3 S 17.4 0.8 1.1
04:52 7.3 7.2 99 1012.0 13.6 E 17.4 0.8 1.2
04:53 7.3 7.2 99 1011.9 11.4 SE 17.4 0.8 1.2
04:54 7.3 7.2 99 1012.0 11.4 SE 13.6 0.8 1.2
04:55 7.3 7.2 99 1012.0 13.0 N 13.6 0.8 1.3
04:56 7.3 7.2 99 1011.9 13.6 S 13.6 1.5 1.3
04:57 7.3 7.2 99 1011.9 14.5 SE 14.5 0.8 1.3
04:58 7.3 7.2 99 1012.0 11.4 E 14.5 0.8 1.3
04:59 7.3 7.2 99 1011.9 11.4 SE 14.5 0.8 1.3
05:00 7.3 7.2 99 1011.9 11.4 SE 14.5 0.8 1.3
05:01 7.3 7.2 99 1011.9 11.4 SE 14.5 0.0 1.3
05:03 7.3 7.2 99 1011.8 11.4 SE 14.5 0.0 1.3
05:04 7.3 7.2 99 1011.8 11.4 SE 14.5 0.0 1.3
05:05 7.3 7.2 99 1011.9 11.4 E 14.5 0.0 1.4
05:06 7.3 7.2 99 1011.9 10.7 SE 14.5 1.5 1.4
05:08 7.3 7.2 99 1011.7 12.1 SE 15.2 1.5 1.4
05:10 7.3 7.2 99 1011.9 12.1 SE 15.2 2.3 1.4
05:12 7.3 7.2 99 1012.0 12.1 SE 15.2 0.8 1.5
05:13 7.3 7.2 99 1011.8 11.4 SE 15.2 1.5 1.5
05:14 7.3 7.2 99 1011.8 12.1 S 15.2 1.5 1.5
05:15 7.2 7.1 99 1011.8 10.7 SE 15.2 0.8 1.5
05:16 7.3 7.2 99 1011.8 10.7 SE 15.2 0.8 1.5
05:17 7.3 7.2 99 1011.9 7.6 SE 15.2 0.8 1.5
05:18 7.2 7.1 99 1011.9 11.4 SE 15.2 0.0 1.5
05:19 7.3 7.2 99 1011.8 9.8 SE 15.2 0.0 1.5
05:20 7.3 7.2 99 1011.8 13.6 SE 15.2 0.0 1.6
05:21 7.3 7.2 99 1011.8 9.2 SE 15.2 0.8 1.6
05:22 7.2 7.1 99 1011.6 10.7 SE 13.6 0.8 1.6
05:23 7.3 7.2 99 1011.7 10.7 SE 13.6 1.5 1.6
05:24 7.3 7.2 99 1011.6 13.0 SE 13.6 1.5 1.6
05:25 7.3 7.2 99 1011.7 15.2 SE 15.2 1.5 1.6
05:27 7.3 7.2 99 1011.7 14.5 SE 15.2 1.5 1.7
05:28 7.3 7.2 99 1011.7 12.1 SE 15.2 0.8 1.7
05:29 7.3 7.2 99 1011.5 19.7 SE 19.7 0.8 1.8
05:30 7.3 7.2 99 1011.6 13.0 SE 19.7 1.5 1.8
05:31 7.3 7.2 99 1011.7 16.8 S 19.7 1.5 1.8
05:32 7.3 7.2 99 1011.6 12.1 SE 19.7 0.8 1.8
05:33 7.3 7.2 99 1011.7 15.2 E 19.7 0.8 1.8
05:34 7.3 7.2 99 1011.6 15.9 SE 19.7 1.5 1.8
05:35 7.3 7.2 99 1011.6 12.1 SE 19.7 1.5 1.9
05:36 7.3 7.2 99 1011.6 22.8 SE 22.8 1.5 1.9
05:37 7.3 7.2 99 1011.6 13.0 E 22.8 1.5 1.9
05:38 7.3 7.2 99 1011.5 14.5 SE 22.8 1.5 2.0
05:39 7.3 7.2 99 1011.5 14.5 NE 22.8 1.5 2.0
05:40 7.3 7.2 99 1011.6 12.1 SE 22.8 0.8 2.0
05:41 7.3 7.2 99 1011.3 15.2 E 22.8 0.8 2.0
05:42 7.3 7.2 99 1011.3 6.9 SE 22.8 1.5 2.0
05:43 7.3 7.2 99 1011.5 12.1 NE 22.8 1.5 2.0
05:44 7.3 7.2 99 1011.4 11.4 SE 22.8 0.8 2.0
05:45 7.3 7.2 99 1011.4 9.2 E 22.8 0.8 2.0
05:46 7.3 7.2 99 1011.4 10.7 SE 15.2 0.8 2.1
05:48 7.3 7.2 99 1011.4 6.9 SE 15.2 0.8 2.1
05:49 7.3 7.2 99 1011.3 9.8 E 15.2 0.8 2.1
05:50 7.3 7.2 99 1011.2 10.7 E 15.2 1.5 2.1
05:51 7.3 7.2 99 1011.4 9.2 SE 15.2 1.5 2.1
05:52 7.3 7.2 99 1011.3 13.0 SE 13.6 0.8 2.2
05:53 7.3 7.2 99 1011.3 9.8 SE 13.0 1.5 2.2
05:54 7.3 7.2 99 1011.3 15.9 NE 15.9 2.3 2.3
05:55 7.3 7.2 99 1011.2 12.1 SE 15.9 1.5 2.3
05:56 7.3 7.2 99 1011.3 13.0 E 15.9 1.5 2.3
05:57 7.3 7.2 99 1011.3 13.0 E 15.9 2.3 2.3
05:58 7.3 7.2 99 1011.3 10.7 NE 19.0 2.3 2.4
05:59 7.3 7.2 99 1011.3 10.7 WSW 19.0 1.5 2.4
06:00 7.3 7.2 99 1011.2 10.7 WSW 19.0 1.5 2.4
06:01 7.3 7.2 99 1011.2 10.7 WSW 19.0 1.5 2.4
06:02 7.3 7.2 99 1011.3 10.7 WSW 19.0 0.8 2.4
06:03 7.3 7.2 99 1011.2 10.7 WSW 19.0 0.0 2.4
06:04 7.3 7.2 99 1011.2 10.7 WSW 19.0 0.0 2.4
06:06 7.3 7.2 99 1011.1 13.6 SE 19.0 3.0 2.6
06:07 7.3 7.2 99 1011.2 10.7 NE 13.6 3.8 2.7
06:08 7.3 7.2 99 1011.1 10.7 E 13.6 3.8 2.8
06:09 7.3 7.2 99 1011.2 13.0 NE 13.6 4.5 2.8
06:11 7.3 7.2 99 1011.2 9.8 NE 13.6 2.3 2.8
06:12 7.3 7.2 99 1010.9 12.1 NE 13.6 1.5 2.8
06:13 7.3 7.2 99 1011.2 13.0 SE 14.5 2.3 2.9
06:14 7.4 7.3 99 1011.1 11.4 S 14.5 1.5 2.9
06:15 7.4 7.3 99 1011.1 8.3 SE 14.5 1.5 2.9
06:16 7.3 7.2 99 1011.0 8.3 SE 14.5 1.5 3.0
06:17 7.4 7.3 99 1010.9 13.0 E 14.5 1.5 3.0
06:18 7.4 7.3 99 1011.0 16.8 E 16.8 1.5 3.0
06:19 7.4 7.3 99 1011.0 9.8 SE 16.8 1.5 3.0
06:20 7.4 7.3 99 1010.9 10.7 SE 16.8 1.5 3.1
06:21 7.4 7.3 99 1011.0 8.3 E 16.8 1.5 3.1
06:22 7.4 7.3 99 1011.0 9.2 NE 16.8 1.5 3.1
06:23 7.4 7.3 99 1011.0 11.4 SE 16.8 1.5 3.1
06:24 7.4 7.3 99 1011.0 11.4 S 16.8 1.5 3.1
06:25 7.4 7.3 99 1011.1 9.2 SE 16.8 1.5 3.2
06:26 7.4 7.3 99 1011.2 12.1 S 16.8 1.5 3.2
06:27 7.4 7.3 99 1011.0 10.7 S 16.8 1.5 3.2
06:28 7.4 7.3 99 1011.3 7.6 SE 12.1 0.8 3.2
06:30 7.4 7.3 99 1011.2 12.1 SE 13.6 1.5 3.3
06:31 7.4 7.3 99 1011.2 12.1 SE 13.6 0.8 3.3
06:32 7.4 7.3 99 1011.1 10.7 SE 13.6 0.8 3.3
06:33 7.5 7.4 99 1011.2 13.6 E 13.6 1.5 3.3
06:34 7.5 7.4 99 1011.1 9.8 NE 13.6 1.5 3.3
06:35 7.5 7.4 99 1011.1 16.8 NE 16.8 1.5 3.4
06:36 7.5 7.4 99 1011.2 12.1 SE 16.8 1.5 3.4
06:37 7.5 7.4 99 1011.2 11.4 N 16.8 1.5 3.4
06:38 7.5 7.4 99 1011.1 17.4 N 21.3 1.5 3.5
06:39 7.5 7.4 99 1011.0 10.7 SE 21.3 1.5 3.5
06:40 7.5 7.4 99 1011.3 9.8 SE 21.3 0.8 3.5
06:41 7.5 7.4 99 1011.2 13.0 E 21.3 1.5 3.5
06:42 7.5 7.4 99 1011.2 12.1 SE 21.3 1.5 3.6
06:43 7.5 7.4 99 1011.2 11.4 E 21.3 1.5 3.6
06:44 7.5 7.4 99 1011.2 10.7 SE 21.3 1.5 3.7
06:45 7.5 7.4 99 1011.2 8.3 SE 21.3 2.3 3.7
06:46 7.5 7.4 99 1011.2 12.1 SE 21.3 1.5 3.7
06:47 7.5 7.4 99 1011.2 11.4 SE 17.4 1.5 3.7
06:49 7.5 7.4 99 1011.2 11.4 SE 13.6 1.5 3.8
06:50 7.6 7.5 99 1011.2 16.8 NE 16.8 1.5 3.8
06:51 7.5 7.4 99 1011.1 15.2 SE 16.8 1.5 3.8
06:52 7.6 7.5 99 1011.2 9.8 SE 16.8 1.5 3.8
06:53 7.6 7.5 99 1011.1 12.1 SE 18.3 1.5 3.8
06:54 7.6 7.5 99 1011.1 19.0 SE 19.0 1.5 3.8
06:55 7.6 7.5 99 1011.0 15.2 SE 19.0 1.5 3.9
06:56 7.6 7.5 99 1011.2 12.1 SE 19.0 1.5 3.9
06:57 7.6 7.5 99 1011.2 19.0 SE 19.0 1.5 3.9
06:58 7.6 7.5 99 1011.1 19.7 SE 19.7 0.8 4.0
06:59 7.6 7.5 99 1011.2 10.7 SE 19.7 1.5 4.0
07:00 7.6 7.5 99 1011.0 10.7 SE 19.7 0.8 4.0
07:01 7.6 7.5 99 1011.1 15.2 SE 19.7 0.8 4.0
07:02 7.6 7.5 99 1011.0 12.1 SE 19.7 1.5 4.0
07:03 7.7 7.6 99 1011.1 20.6 SE 20.6 1.5 4.1
07:04 7.6 7.5 99 1011.2 11.4 SE 20.6 1.5 4.1
07:05 7.7 7.6 99 1011.2 11.4 SE 20.6 1.5 4.2
07:07 7.7 7.6 99 1011.2 11.4 SE 20.6 1.5 4.2
07:09 7.7 7.6 99 1011.1 14.5 SE 20.6 1.5 4.3
07:10 7.7 7.6 99 1011.1 21.3 SE 21.3 2.3 4.3
07:11 7.7 7.6 99 1011.2 15.2 SE 21.3 2.3 4.3
07:12 7.7 7.6 99 1011.2 13.6 SE 21.3 2.3 4.4
07:13 7.7 7.6 99 1011.1 13.0 SE 21.3 2.3 4.4
07:14 7.7 7.6 99 1011.0 11.4 SE 21.3 2.3 4.5
07:15 7.7 7.6 99 1011.1 15.2 SE 21.3 2.3 4.5
07:16 7.7 7.6 99 1011.2 12.1 SE 21.3 1.5 4.5
07:17 7.7 7.6 99 1011.0 12.1 SE 21.3 2.3 4.6
07:18 7.7 7.6 99 1011.2 15.9 S 21.3 2.3 4.6
07:19 7.7 7.6 99 1011.1 12.1 S 21.3 2.3 4.7
07:21 7.7 7.6 99 1011.2 12.1 E 15.9 2.3 4.7
07:22 7.7 7.6 99 1011.1 13.6 SE 15.9 1.5 4.7
07:23 7.7 7.6 99 1011.0 9.8 SE 15.9 1.5 4.7
07:24 7.7 7.6 99 1011.2 11.4 SE 15.9 2.3 4.8
07:25 7.7 7.6 99 1011.2 13.6 SE 15.9 1.5 4.8
07:26 7.7 7.6 99 1011.1 10.7 NW 15.9 2.3 4.9
07:27 7.7 7.6 99 1011.2 9.8 WSW 15.9 2.3 4.9
07:28 7.7 7.6 99 1011.0 14.5 SE 15.9 1.5 4.9
07:29 7.7 7.6 99 1011.1 11.4 SE 14.5 1.5 4.9
07:30 7.7 7.6 99 1011.1 13.6 SE 14.5 1.5 5.0
07:31 7.7 7.6 99 1011.2 15.9 SE 15.9 1.5 5.0
07:32 7.7 7.6 99 1011.1 13.6 S 15.9 1.5 5.0
07:33 7.7 7.6 99 1011.2 11.4 SE 15.9 2.3 5.0
07:34 7.7 7.6 99 1011.2 11.4 SE 15.9 1.5 5.1
07:35 7.7 7.6 99 1011.1 13.6 SE 15.9 2.3 5.1
07:36 7.7 7.6 99 1011.2 13.6 SE 15.9 1.5 5.1
07:38 7.7 7.6 99 1011.1 15.2 SE 15.9 1.5 5.2
07:39 7.7 7.6 99 1011.1 15.9 SE 15.9 2.3 5.2
07:40 7.7 7.6 99 1011.1 12.1 WNW 15.9 1.5 5.3
07:41 7.7 7.6 99 1011.1 19.7 S 19.7 2.3 5.3
07:42 7.7 7.6 99 1011.2 11.4 SE 19.7 2.3 5.3
07:43 7.7 7.6 99 1011.1 13.0 SE 19.7 2.3 5.4
07:44 7.7 7.6 99 1011.1 17.4 SE 19.7 1.5 5.4
07:45 7.7 7.6 99 1011.0 13.0 NE 19.7 2.3 5.5
07:46 7.7 7.6 99 1011.0 13.0 NE 19.7 2.3 5.5
07:47 7.7 7.6 99 1011.1 11.4 SE 19.7 2.3 5.5
07:48 7.7 7.6 99 1011.1 13.6 N 19.7 1.5 5.5
07:49 7.7 7.6 99 1011.2 19.0 SE 19.7 2.3 5.6
07:50 7.7 7.6 99 1011.2 18.3 SE 19.7 2.3 5.6
07:51 7.7 7.6 99 1011.2 13.0 SE 19.0 1.5 5.6
07:52 7.7 7.6 99 1011.2 15.9 SE 19.0 1.5 5.7
07:53 7.7 7.6 99 1011.1 12.1 SE 19.0 2.3 5.7
07:54 7.7 7.6 99 1011.0 13.0 SE 19.0 2.3 5.7
07:55 7.7 7.6 99 1011.1 9.8 SE 19.0 1.5 5.8
07:56 7.7 7.6 99 1011.3 11.4 SE 19.0 2.3 5.8
07:57 7.8 7.7 99 1011.2 9.8 SE 19.0 2.3 5.9
07:58 7.8 7.7 99 1011.2 11.4 SE 19.0 2.3 5.9
07:59 7.8 7.7 99 1011.1 12.1 SE 19.0 2.3 5.9
08:00 7.8 7.7 99 1011.1 12.1 SE 18.3 2.3 5.9
08:01 7.8 7.7 99 1011.3 16.8 SE 16.8 1.5 6.0
08:02 7.8 7.7 99 1011.1 15.2 SE 17.4 2.3 6.1
08:03 7.8 7.7 99 1011.3 13.0 E 17.4 3.0 6.1
08:04 7.8 7.7 99 1011.2 16.8 SE 17.4 2.3 6.2
08:05 7.8 7.7 99 1011.2 19.7 SE 19.7 3.0 6.2
08:07 7.8 7.7 99 1011.1 15.2 SE 19.7 3.0 6.3
08:08 7.8 7.7 99 1011.0 15.9 SE 19.7 3.0 6.4
08:10 7.8 7.7 99 1011.1 12.1 SE 19.7 3.0 6.4
08:11 7.8 7.7 99 1011.2 15.2 E 19.7 3.0 6.5
08:12 7.8 7.7 99 1011.2 22.1 SE 22.1 3.0 6.6
08:14 7.9 7.8 99 1011.2 21.3 NW 22.1 2.3 6.6
08:15 7.9 7.8 99 1011.2 15.9 SE 22.1 2.3 6.7
08:16 7.9 7.8 99 1011.2 14.5 SE 22.1 2.3 6.7
08:17 7.9 7.8 99 1011.2 15.2 SE 22.1 2.3 6.7
08:18 7.9 7.8 99 1011.1 10.7 SE 22.1 2.3 6.7
08:19 7.9 7.8 99 1011.2 15.9 E 22.1 2.3 6.8
08:20 7.9 7.8 99 1011.2 19.0 SE 22.1 2.3 6.8
08:21 7.9 7.8 99 1011.2 17.4 NE 22.1 1.5 6.9
08:22 7.9 7.8 99 1011.0 14.5 E 22.1 2.3 6.9
08:23 7.9 7.8 99 1011.2 15.9 SE 21.3 2.3 6.9
08:24 7.9 7.8 99 1011.2 19.0 SE 19.0 2.3 6.9
08:25 7.9 7.8 99 1011.2 13.6 SE 19.0 1.5 7.0
08:26 7.9 7.8 99 1011.2 22.1 SE 22.1 2.3 7.0
08:27 7.9 7.8 99 1011.4 12.1 SE 22.1 1.5 7.1
08:28 7.9 7.8 99 1011.2 15.9 SE 22.1 1.5 7.1
08:29 7.9 7.8 99 1011.1 19.0 SE 22.1 1.5 7.1
08:30 7.9 7.8 99 1011.1 15.9 SE 22.1 2.3 7.1
08:32 7.9 7.8 99 1011.2 14.5 S 22.1 2.3 7.2
08:33 7.9 7.8 99 1011.3 13.6 SE 22.1 1.5 7.2
08:34 7.9 7.8 99 1011.2 14.5 S 22.1 2.3 7.2
08:35 8.0 7.9 99 1011.2 12.1 SE 22.1 2.3 7.3
08:36 8.0 7.9 99 1011.1 15.2 NNW 22.1 1.5 7.3
08:37 8.0 7.9 99 1011.1 12.1 S 19.0 1.5 7.4
08:38 7.9 7.8 99 1011.2 14.5 SE 19.0 2.3 7.4
08:39 8.0 7.9 99 1011.2 15.9 SE 19.0 1.5 7.4
08:40 8.0 7.9 99 1011.2 13.0 E 15.9 1.5 7.4
08:41 8.0 7.9 99 1011.2 16.8 SE 16.8 1.5 7.5
08:42 8.0 7.9 99 1011.0 14.5 SE 16.8 2.3 7.5
08:43 8.0 7.9 99 1011.1 10.7 SE 16.8 1.5 7.5
08:44 8.0 7.9 99 1011.2 16.8 SE 21.3 2.3 7.6
08:45 8.0 7.9 99 1011.1 13.0 SE 21.3 1.5 7.6
08:46 8.0 7.9 99 1011.0 11.4 SE 21.3 1.5 7.6
08:47 8.0 7.9 99 1011.1 20.6 NE 21.3 1.5 7.6
08:48 8.0 7.9 99 1011.1 16.8 SE 21.3 1.5 7.7
08:49 8.0 7.9 99 1010.9 12.1 SE 21.3 1.5 7.7
08:50 8.0 7.9 99 1011.0 13.6 E 21.3 1.5 7.7
08:51 8.0 7.9 99 1011.1 11.4 SE 21.3 1.5 7.7
08:52 8.0 7.9 99 1011.2 14.5 SE 21.3 1.5 7.7
08:53 8.0 7.9 99 1011.0 15.2 SE 21.3 1.5 7.8
08:54 8.0 7.9 99 1011.0 11.4 SE 20.6 1.5 7.8
08:55 8.0 7.9 99 1011.2 12.1 SE 20.6 1.5 7.8
08:56 8.1 8.0 99 1011.2 9.2 SE 20.6 1.5 7.9
08:57 8.0 7.9 99 1011.0 13.6 SE 17.4 1.5 7.9
08:58 8.0 7.9 99 1011.2 14.5 SE 17.4 1.5 7.9
08:59 8.1 8.0 99 1011.0 13.0 SE 17.4 1.5 7.9
09:00 8.1 8.0 99 1011.1 19.7 SE 19.7 1.5 7.9
09:01 8.1 8.0 99 1011.0 19.7 SE 19.7 1.5 7.9
09:02 8.1 8.0 99 1011.1 19.7 SE 19.7 0.8 7.9
09:03 8.1 8.0 99 1011.0 19.7 SE 19.7 0.8 7.9
09:04 8.1 8.0 99 1011.0 19.7 SE 19.7 0.0 7.9
09:05 8.1 8.0 99 1011.0 13.6 SE 19.7 0.0 8.2
09:06 8.1 8.0 99 1011.1 13.6 SE 19.7 3.0 8.2
09:08 8.1 8.0 99 1011.0 15.9 SE 19.7 3.8 8.3
09:09 8.1 8.0 99 1011.1 16.8 SE 19.7 3.8 8.3
09:10 8.1 8.0 99 1011.1 16.8 SE 20.6 4.5 8.3
09:12 8.1 8.0 99 1011.0 14.5 SE 20.6 1.5 8.4
09:13 8.1 8.0 99 1010.9 16.8 E 20.6 1.5 8.4
09:14 8.2 8.1 99 1010.9 15.2 SE 20.6 1.5 8.4
09:15 8.1 8.0 99 1011.0 13.0 N 20.6 1.5 8.4
09:16 8.1 8.0 99 1011.0 17.4 SE 20.6 1.5 8.4
09:17 8.1 8.0 99 1011.0 15.9 SE 20.6 1.5 8.4
09:18 8.1 8.0 99 1011.2 19.0 SE 20.6 0.8 8.5
09:20 8.2 8.1 99 1011.0 19.7 SE 20.6 1.5 8.6
09:21 8.2 8.1 99 1011.0 22.1 E 22.1 1.5 8.6
09:22 8.2 8.1 99 1011.1 17.4 SE 22.1 1.5 8.6
09:23 8.2 8.1 99 1011.0 18.3 E 22.1 2.3 8.6
09:24 8.2 8.1 99 1011.1 12.1 SE 22.1 1.5 8.6
09:25 8.2 8.1 99 1011.1 16.8 SE 22.1 0.8 8.7
09:26 8.2 8.1 99 1010.9 21.3 SE 22.1 1.5 8.7
09:27 8.2 8.1 99 1011.0 21.3 SE 22.1 1.5 8.7
09:28 8.2 8.1 99 1011.1 22.1 SE 22.1 1.5 8.8
09:29 8.2 8.1 99 1011.2 11.4 SE 22.1 1.5 8.8
09:30 8.2 8.1 99 1011.1 12.1 SE 22.1 2.3 8.8
09:31 8.2 8.1 99 1011.3 16.8 SE 22.1 1.5 8.8
09:32 8.2 8.1 99 1011.3 18.3 SE 22.1 1.5 8.9
09:33 8.2 8.1 99 1011.2 19.0 SE 22.1 1.5 8.9
09:34 8.2 8.1 99 1011.1 17.4 SE 22.1 1.5 8.9
09:35 8.2 8.1 99 1011.2 15.9 SE 22.1 1.5 8.9
09:36 8.2 8.1 99 1011.2 19.0 SE 22.1 1.5 9.0
09:37 8.2 8.1 99 1011.2 16.8 SE 22.1 2.3 9.0
09:38 8.2 8.1 99 1011.4 18.3 SE 19.0 1.5 9.1
09:40 8.2 8.1 99 1011.3 18.3 SE 19.0 1.5 9.1
09:41 8.2 8.1 99 1011.2 17.4 SE 19.0 1.5 9.1
09:42 8.3 8.2 99 1011.2 16.8 S 19.0 1.5 9.1
09:43 8.3 8.2 99 1011.4 20.6 SE 20.6 1.5 9.1
09:44 8.3 8.2 99 1011.2 21.3 SE 21.3 0.8 9.1
09:45 8.3 8.2 99 1011.2 15.2 SE 21.3 1.5 9.2
09:46 8.3 8.2 99 1011.1 19.0 SE 21.3 1.5 9.2
09:47 8.3 8.2 99 1011.2 20.6 SE 21.3 0.8 9.2
09:48 8.3 8.2 99 1011.2 21.3 SE 21.3 0.8 9.2
09:49 8.3 8.2 99 1011.2 13.6 SE 21.3 1.5 9.3
09:50 8.3 8.2 99 1011.1 14.5 E 21.3 0.8 9.3
09:51 8.3 8.2 99 1011.3 18.3 SE 21.3 0.8 9.3
09:52 8.3 8.2 99 1011.3 15.2 NE 21.3 1.5 9.3
09:53 8.3 8.2 99 1011.2 20.6 SE 21.3 1.5 9.3
09:55 8.3 8.2 99 1011.4 19.7 SE 21.3 0.8 9.3
09:56 8.3 8.2 99 1011.3 14.5 SE 21.3 0.8 9.3
09:57 8.3 8.2 99 1011.3 19.7 S 21.3 0.8 9.4
09:58 8.3 8.2 99 1011.4 23.5 SE 23.5 1.5 9.4
09:59 8.3 8.2 99 1011.2 17.4 SE 23.5 1.5 9.4
10:00 8.3 8.2 99 1011.2 17.4 SE 23.5 1.5 9.4
10:01 8.3 8.2 99 1011.2 23.5 SE 23.5 1.5 9.5
10:02 8.3 8.2 99 1011.2 15.9 SE 23.5 1.5 9.5
10:03 8.3 8.2 99 1011.3 13.6 SE 23.5 0.8 9.5
10:04 8.3 8.2 99 1011.2 16.8 SE 23.5 0.8 9.5
10:05 8.3 8.2 99 1011.2 17.4 SE 23.5 0.8 9.6
10:07 8.3 8.2 99 1011.2 19.7 S 23.5 0.8 9.6
10:08 8.4 8.3 99 1011.2 20.6 SE 23.5 0.8 9.6
10:10 8.4 8.3 99 1011.2 19.0 SE 25.1 0.8 9.6
10:11 8.4 8.3 99 1011.3 15.2 SE 25.1 0.8 9.6
10:13 8.4 8.3 99 1011.4 15.9 S 25.1 0.8 9.6
10:14 8.4 8.3 99 1011.3 14.5 SE 25.1 1.5 9.7
10:15 8.4 8.3 99 1011.4 18.3 SE 25.1 1.5 9.7
10:16 8.4 8.3 99 1011.2 18.3 SE 25.1 0.8 9.7
10:17 8.4 8.3 99 1011.5 22.8 SE 25.1 0.8 9.7
10:18 8.4 8.3 99 1011.4 21.3 SE 25.1 0.8 9.8
10:19 8.4 8.3 99 1011.3 23.5 SE 23.5 0.8 9.8
10:20 8.4 8.3 99 1011.4 15.2 S 23.5 0.8 9.8
10:21 8.4 8.3 99 1011.4 13.0 WSW 23.5 0.8 9.8
10:22 8.4 8.3 99 1011.4 16.8 SE 23.5 0.8 9.8
10:24 8.4 8.3 99 1011.3 16.8 SE 23.5 0.8 9.8
10:25 8.4 8.3 99 1011.6 18.3 SE 23.5 0.8 9.8
10:26 8.4 8.3 99 1011.5 15.9 SE 23.5 0.8 9.8
10:27 8.4 8.3 99 1011.5 15.2 SE 23.5 1.5 9.9
10:28 8.4 8.3 99 1011.6 19.0 SE 23.5 0.8 9.9
10:29 8.4 8.3 99 1011.5 18.3 SE 23.5 0.8 9.9
10:30 8.4 8.3 99 1011.5 13.6 SE 19.7 1.5 10.0
10:31 8.4 8.3 99 1011.3 15.2 SE 19.7 1.5 10.0
10:32 8.4 8.3 99 1011.3 15.9 SE 19.7 0.8 10.0
10:33 8.5 8.4 99 1011.4 19.7 SE 19.7 0.8 10.0
10:34 8.4 8.3 99 1011.4 13.0 SE 19.7 1.5 10.0
10:35 8.5 8.4 99 1011.4 16.8 SE 19.7 0.8 10.0
10:36 8.5 8.4 99 1011.4 22.8 SE 22.8 0.8 10.0
10:37 8.5 8.4 99 1011.4 14.5 SE 22.8 0.8 10.0
10:38 8.4 8.3 99 1011.3 13.6 SE 22.8 0.8 10.0
10:39 8.4 8.3 99 1011.3 13.0 S 22.8 0.0 10.0
10:40 8.5 8.4 99 1011.5 15.2 S 22.8 0.8 10.1
10:41 8.5 8.4 99 1011.3 15.9 SE 22.8 0.8 10.1
10:42 8.5 8.4 99 1011.3 18.3 SE 22.8 0.8 10.1
10:43 8.5 8.4 99 1011.4 18.3 SE 22.8 1.5 10.1
10:44 8.5 8.4 99 1011.5 19.0 SE 22.8 1.5 10.1
10:45 8.5 8.4 99 1011.4 18.3 SE 22.8 0.8 10.2
10:46 8.5 8.4 99 1011.4 18.3 SE 21.3 1.5 10.2
10:47 8.5 8.4 99 1011.6 19.7 SE 21.3 1.5 10.2
10:48 8.5 8.4 99 1011.6 19.7 SE 21.3 0.8 10.2
10:49 8.4 8.3 99 1011.7 15.9 S 23.5 0.8 10.3
10:50 8.5 8.4 99 1011.5 19.0 SE 23.5 1.5 10.3
10:52 8.5 8.4 99 1011.4 15.9 SE 23.5 0.8 10.3
10:53 8.5 8.4 99 1011.7 18.3 SE 23.5 1.5 10.3
10:54 8.5 8.4 99 1011.6 13.6 SE 23.5 1.5 10.5
10:55 8.5 8.4 99 1011.3 16.8 SE 23.5 3.0 10.5
10:56 8.5 8.4 99 1011.5 13.6 SE 23.5 3.0 10.5
10:57 8.5 8.4 99 1011.6 16.8 NE 23.5 3.0 10.6
10:58 8.5 8.4 99 1011.7 20.6 SE 23.5 3.8 10.6
10:59 8.5 8.4 99 1011.6 13.6 SE 23.5 3.0 10.7
11:00 8.5 8.4 99 1011.7 13.6 SE 20.6 2.3 10.7
11:01 8.5 8.4 99 1011.8 13.6 SE 20.6 2.3 10.7
11:02 8.5 8.4 99 1011.7 13.6 SE 20.6 1.5 10.7
11:03 8.5 8.4 99 1011.7 13.6 SE 20.6 0.8 10.7
11:04 8.5 8.4 99 1011.8 17.4 SSW 20.6 0.0 11.0
11:05 8.5 8.4 99 1011.9 15.2 NNW 20.6 3.8 11.1
11:06 8.5 8.4 99 1011.8 15.2 S 20.6 4.5 11.1
11:07 8.5 8.4 99 1011.8 10.7 S 20.6 4.5 11.2
11:09 8.5 8.4 99 1011.8 15.9 S 17.4 6.0 11.3
11:10 8.4 8.3 99 1011.9 15.2 SE 17.4 5.3 11.5
11:12 8.2 8.1 99 1011.9 15.9 S 17.4 6.0 11.7
11:13 8.2 8.1 99 1011.8 9.8 S 17.4 5.3 11.7
11:15 8.1 8.0 99 1011.9 11.4 SE 16.8 5.3 11.8
11:16 8.1 8.0 99 1012.0 13.0 S 16.8 3.0 11.8
11:17 8.0 7.9 99 1012.1 12.1 S 16.8 3.0 11.8
11:18 8.0 7.9 99 1012.0 13.0 S 16.8 3.0 11.8
11:19 8.0 7.9 99 1011.8 10.7 SE 16.8 2.3 11.9
11:20 7.9 7.8 99 1011.8 12.1 S 16.8 1.5 11.9
11:21 7.9 7.8 99 1011.8 9.2 NW 16.8 1.5 11.9
11:22 7.9 7.8 99 1011.7 8.3 S 15.9 0.8 12.0
11:23 7.9 7.8 99 1011.9 11.4 S 13.0 1.5 12.0
11:24 7.9 7.8 99 1011.9 13.0 SE 13.0 0.8 12.0
11:25 7.9 7.8 99 1011.9 12.1 SE 13.0 0.8 12.0
11:26 7.9 7.8 99 1011.7 14.5 S 14.5 0.8 12.0
11:27 8.0 7.9 99 1011.8 19.7 SE 19.7 0.8 12.0
11:28 8.1 8.0 99 1011.9 11.4 SE 19.7 0.8 12.0
11:29 8.1 8.0 99 1011.8 15.9 S 19.7 0.8 12.1
11:30 8.1 8.0 99 1011.8 16.8 SE 19.7 1.5 12.1
11:31 8.2 8.1 99 1012.0 19.0 SE 19.7 1.5 12.2
11:32 8.2 8.1 99 1011.8 12.1 SE 19.7 2.3 12.2
11:33 8.2 8.1 99 1011.8 11.4 S 19.7 1.5 12.2
11:34 8.2 8.1 99 1011.9 11.4 SE 19.7 1.5 12.2
11:35 8.3 8.2 99 1011.7 13.0 SE 19.7 1.5 12.2
11:36 8.3 8.2 99 1011.7 13.0 SE 19.7 1.5 12.2
11:37 8.3 8.2 99 1011.7 13.0 SE 19.7 0.8 12.2
11:38 8.3 8.2 99 1011.7 13.6 NW 19.0 0.8 12.3
11:39 8.4 8.3 99 1011.9 9.8 SE 19.0 1.5 12.3
11:40 8.4 8.3 99 1011.9 13.6 E 19.0 1.5 12.3
11:41 8.4 8.3 99 1011.8 10.7 SE 19.0 1.5 12.3
11:42 8.4 8.3 99 1011.7 11.4 SE 13.6 1.5 12.3
11:43 8.4 8.3 99 1011.8 13.6 S 13.6 2.3 12.4
11:44 8.4 8.3 99 1011.7 13.6 SE 13.6 1.5 12.5
11:45 8.4 8.3 99 1011.6 13.0 SE 13.6 1.5 12.5
11:46 8.4 8.3 99 1011.7 13.0 SE 13.6 2.3 12.5
11:47 8.4 8.3 99 1011.8 15.2 SE 15.2 2.3 12.6
11:48 8.4 8.3 99 1011.7 15.2 SE 15.2 2.3 12.6
11:49 8.4 8.3 99 1011.6 15.9 SE 15.9 2.3 12.6
11:51 8.4 8.3 99 1011.7 15.2 S 15.9 1.5 12.7
11:52 8.4 8.3 99 1011.7 16.8 SE 16.8 2.3 12.7
11:53 8.4 8.3 99 1011.6 13.6 WNW 16.8 1.5 12.7
11:54 8.4 8.3 99 1011.6 11.4 SE 16.8 1.5 12.7
11:55 8.4 8.3 99 1011.7 9.2 SE 16.8 2.3 12.8
11:56 8.4 8.3 99 1011.6 10.7 S 16.8 1.5 12.8
11:57 8.4 8.3 99 1011.6 13.0 SE 16.8 0.8 12.8
11:58 8.4 8.3 99 1011.6 9.8 SE 16.8 1.5 12.9
11:59 8.4 8.3 99 1011.6 13.6 S 16.8 1.5 12.9
12:00 8.4 8.3 99 1011.6 13.0 SE 16.8 1.5 12.9
12:01 8.4 8.3 99 1011.7 13.0 SE 16.8 1.5 12.9
12:02 8.4 8.3 99 1011.7 13.0 SE 16.8 1.5 12.9
12:03 8.4 8.3 99 1011.7 13.0 SE 14.5 0.8 12.9
12:04 8.4 8.3 99 1011.5 13.0 SE 14.5 0.8 12.9
12:05 8.4 8.3 99 1011.7 13.0 SE 13.6 0.0 12.9
12:06 8.4 8.3 99 1011.6 13.0 N 13.6 0.8 13.0
12:07 8.4 8.3 99 1011.5 9.8 SE 13.6 1.5 13.0
12:08 8.4 8.3 99 1011.4 9.8 SE 13.6 2.3 13.1
12:10 8.4 8.3 99 1011.5 14.5 E 14.5 2.3 13.1
12:11 8.4 8.3 99 1011.6 13.6 SE 15.9 2.3 13.2
12:13 8.4 8.3 99 1011.6 18.3 SE 18.3 0.8 13.2
12:15 8.4 8.3 99 1011.6 12.1 SE 18.3 1.5 13.2
12:16 8.4 8.3 99 1011.4 14.5 E 18.3 0.8 13.2
12:18 8.4 8.3 99 1011.7 12.1 E 18.3 0.8 13.2
12:19 8.3 8.2 99 1011.5 11.4 SE 18.3 1.5 13.3
12:20 8.3 8.2 99 1011.6 17.4 S 18.3 0.8 13.3
12:21 8.3 8.2 99 1011.7 12.1 SE 18.3 0.8 13.4
12:22 8.3 8.2 99 1011.3 10.7 NE 18.3 1.5 13.4
12:23 8.3 8.2 99 1011.5 15.2 SE 17.4 1.5 13.4
12:25 8.3 8.2 99 1011.4 20.6 SE 20.6 1.5 13.4
12:27 8.3 8.2 99 1011.5 11.4 E 20.6 1.5 13.5
12:28 8.3 8.2 99 1011.4 15.9 SE 20.6 1.5 13.5
12:29 8.3 8.2 99 1011.4 11.4 SE 20.6 1.5 13.5
12:31 8.3 8.2 99 1011.5 13.0 SE 20.6 1.5 13.5
12:32 8.3 8.2 99 1011.5 16.8 SE 20.6 0.8 13.5
12:33 8.3 8.2 99 1011.4 15.9 SE 20.6 0.8 13.5
12:34 8.3 8.2 99 1011.5 11.4 SE 20.6 0.8 13.5
12:35 8.3 8.2 99 1011.4 12.1 SE 20.6 1.5 13.6
12:36 8.2 8.1 99 1011.4 9.2 SE 16.8 0.8 13.6
12:38 8.3 8.2 99 1011.4 11.4 NNE 16.8 0.8 13.6
12:40 8.3 8.2 99 1011.3 13.6 SE 16.8 0.8 13.7
12:42 8.3 8.2 99 1011.2 12.1 SE 15.9 0.8 13.7
12:44 8.3 8.2 99 1011.2 15.9 SE 15.9 0.8 13.7
12:46 8.3 8.2 99 1011.2 15.2 SE 15.9 0.8 13.7
12:47 8.3 8.2 99 1011.4 13.0 NE 15.9 0.8 13.7
12:48 8.3 8.2 99 1011.2 14.5 SE 15.9 0.8 13.8
12:49 8.3 8.2 99 1011.3 12.1 E 15.9 1.5 13.8
12:51 8.3 8.2 99 1011.2 15.2 SE 15.9 0.8 13.8
12:52 8.3 8.2 99 1011.3 14.5 SE 15.9 0.8 13.8
12:53 8.3 8.2 99 1011.4 9.2 SE 15.9 0.8 13.8
12:55 8.3 8.2 99 1011.2 18.3 SE 18.3 0.8 13.9
12:57 8.3 8.2 99 1011.1 11.4 SE 18.3 0.8 13.9
13:00 8.3 8.2 99 1011.0 10.7 SE 18.3 0.8 13.9
13:02 8.3 8.2 99 1011.1 10.7 SE 18.3 0.8 13.9
13:04 8.3 8.2 99 1011.2 10.7 SE 18.3 0.0 13.9
13:06 8.3 8.2 99 1011.2 10.7 SE 18.3 0.8 14.0
13:07 8.3 8.2 99 1011.3 21.3 SE 21.3 0.8 14.0
13:10 8.3 8.2 99 1011.3 15.9 SE 21.3 0.8 14.0
13:12 8.3 8.2 99 1011.1 9.2 SE 21.3 0.0 14.0
13:13 8.3 8.2 99 1011.1 10.7 SE 21.3 0.0 14.0
13:15 8.3 8.2 99 1011.2 10.7 SE 21.3 0.8 14.0
13:17 8.3 8.2 99 1011.2 11.4 W 21.3 0.8 14.0
13:18 8.3 8.2 99 1011.1 15.9 SE 19.0 0.8 14.0
13:20 8.3 8.2 99 1011.2 9.2 NNE 19.0 0.0 14.0
13:22 8.2 8.1 99 1011.2 9.8 SE 17.4 0.8 14.1
13:25 8.3 8.2 99 1011.1 13.0 SE 17.4 0.8 14.1
13:26 8.2 8.1 99 1011.1 13.6 SE 16.8 0.8 14.1
13:27 8.2 8.1 99 1011.2 13.6 SE 16.8 0.0 14.1
13:29 8.2 8.1 99 1011.1 12.1 SE 16.8 0.0 14.1
13:30 8.2 8.1 99 1011.1 6.9 SE 16.8 0.8 14.2
13:31 8.2 8.1 99 1011.1 10.7 E 13.6 0.8 14.2
13:32 8.2 8.1 99 1011.0 9.2 E 13.6 0.8 14.2
13:33 8.2 8.1 99 1011.2 13.0 E 13.6 0.8 14.2
13:34 8.2 8.1 99 1010.9 11.4 SE 13.6 0.8 14.2
13:35 8.2 8.1 99 1011.1 14.5 SE 14.5 0.0 14.2
13:36 8.2 8.1 99 1010.9 10.7 NE 14.5 0.0 14.2
13:37 8.2 8.1 99 1010.7 11.4 SE 14.5 0.8 14.2
13:38 8.2 8.1 99 1010.8 10.7 E 14.5 0.8 14.2
13:39 8.2 8.1 99 1010.9 12.1 SE 14.5 0.8 14.2
13:40 8.2 8.1 99 1010.8 12.1 SE 14.5 0.8 14.2
13:41 8.2 8.1 99 1010.8 13.6 SE 14.5 0.8 14.2
13:42 8.2 8.1 99 1010.8 10.7 SE 14.5 0.0 14.2
13:43 8.2 8.1 99 1010.9 12.1 SE 14.5 0.0 14.2
13:44 8.2 8.1 99 1010.8 13.6 SE 14.5 0.0 14.3
13:45 8.2 8.1 99 1010.9 13.0 SE 14.5 0.8 14.3
13:46 8.2 8.1 99 1010.8 10.7 SE 14.5 0.8 14.3
13:47 8.2 8.1 99 1010.9 12.1 SE 14.5 0.8 14.3
13:48 8.2 8.1 99 1011.0 11.4 E 14.5 0.8 14.3
13:50 8.2 8.1 99 1011.0 9.8 E 14.5 0.0 14.3
13:51 8.2 8.1 99 1010.9 13.0 WSW 14.5 0.0 14.3
13:52 8.2 8.1 99 1010.9 15.9 E 15.9 0.0 14.3
13:53 8.2 8.1 99 1010.9 14.5 SSW 15.9 0.8 14.4
13:54 8.1 8.0 99 1011.1 10.7 E 15.9 0.8 14.4
13:55 8.1 8.0 99 1011.1 13.0 SE 15.9 0.8 14.4
13:56 8.1 8.0 99 1011.1 13.0 SE 15.9 0.8 14.4
13:57 8.2 8.1 99 1011.1 12.1 SE 15.9 1.5 14.4
13:58 8.1 8.0 99 1011.1 13.6 SE 15.9 0.8 14.4
13:59 8.1 8.0 99 1011.2 13.6 SE 15.9 0.8 14.4
14:00 8.1 8.0 99 1011.2 15.9 E 15.9 1.5 14.5
14:01 8.1 8.0 99 1011.2 15.9 E 15.9 1.5 14.5
14:02 8.1 8.0 99 1011.3 15.9 E 15.9 0.8 14.5
14:03 8.1 8.0 99 1011.3 15.9 E 15.9 0.8 14.5
14:04 8.1 8.0 99 1011.2 15.9 E 15.9 0.8 14.5
14:05 8.1 8.0 99 1011.3 9.8 SE 15.9 0.0 14.6
14:06 8.1 8.0 99 1011.3 13.0 SE 15.9 0.8 14.6
14:07 8.1 8.0 99 1011.2 11.4 SE 15.9 0.8 14.6
14:09 8.1 8.0 99 1011.4 9.8 SE 15.9 1.5 14.6
14:10 8.1 8.0 99 1011.4 12.1 S 15.9 1.5 14.6
14:11 8.1 8.0 99 1011.4 11.4 S 15.9 0.8 14.6
14:13 8.1 8.0 99 1011.3 9.8 S 15.9 1.5 14.7
14:14 8.0 7.9 99 1011.5 8.3 S 15.9 0.8 14.7
14:15 8.1 8.0 99 1011.3 9.8 SE 13.0 0.8 14.7
14:17 8.1 8.0 99 1011.4 7.6 SE 12.1 0.8 14.7
14:18 8.1 8.0 99 1011.3 6.9 SE 12.1 0.8 14.7
14:19 8.0 7.9 99 1011.2 9.2 S 12.1 0.8 14.7
14:20 8.0 7.9 99 1011.2 6.9 SE 12.1 0.8 14.7
14:21 8.0 7.9 99 1011.3 7.6 SE 11.4 0.8 14.7
14:22 8.1 8.0 99 1011.4 9.8 SE 11.4 0.8 14.7
14:23 8.1 8.0 99 1011.2 7.6 SE 11.4 0.0 14.7
14:24 8.1 8.0 99 1011.3 7.6 S 11.4 0.0 14.7
14:25 8.1 8.0 99 1011.3 5.4 SE 11.4 0.0 14.8
14:26 8.1 8.0 99 1011.5 9.2 E 10.7 0.8 14.8
14:27 8.0 7.9 99 1011.4 9.8 SE 10.7 0.8 14.8
14:28 8.0 7.9 99 1011.3 8.3 S 11.4 0.8 14.8
14:29 8.0 7.9 99 1011.2 9.8 SE 11.4 0.8 14.8
14:30 8.0 7.9 99 1011.2 6.0 SE 11.4 0.8 14.8
14:31 8.0 7.9 99 1011.3 8.3 SE 11.4 0.0 14.8
14:32 8.0 7.9 99 1011.3 9.8 SE 11.4 0.0 14.8
14:33 8.0 7.9 99 1011.3 5.4 SE 11.4 0.0 14.8
14:34 8.0 7.9 99 1011.4 9.8 SE 11.4 0.0 14.8
14:35 8.0 7.9 99 1011.3 9.8 SE 11.4 0.0 14.8
14:36 8.0 7.9 99 1011.3 9.2 SE 11.4 0.0 14.8
14:37 8.0 7.9 99 1011.3 9.2 SE 11.4 0.0 14.8
14:39 8.0 7.9 99 1011.3 8.3 SE 11.4 0.0 14.8
14:40 8.0 7.9 99 1011.1 9.8 SE 11.4 0.8 14.9
14:41 7.9 7.8 99 1011.3 6.0 SE 11.4 0.8 14.9
14:42 7.9 7.8 99 1011.3 6.0 SE 11.4 0.8 14.9
14:43 7.9 7.8 99 1011.3 4.5 SE 11.4 0.8 14.9
14:44 7.9 7.8 99 1011.3 3.8 E 11.4 0.8 14.9
14:45 7.9 7.8 99 1011.2 6.0 SE 11.4 0.0 14.9
14:46 8.0 7.9 99 1011.2 13.0 SE 13.0 0.8 14.9
14:47 8.0 7.9 99 1011.2 12.1 SE 13.0 0.8 14.9
14:48 7.9 7.8 99 1011.5 10.7 SE 13.0 0.8 14.9
14:49 7.9 7.8 99 1011.3 6.0 SE 13.0 0.8 14.9
14:50 7.9 7.8 99 1011.3 10.7 S 13.0 0.8 14.9
14:51 7.9 7.8 99 1011.3 6.0 W 13.0 0.0 14.9
14:52 7.9 7.8 99 1011.4 9.2 SE 13.0 0.0 14.9
14:53 7.9 7.8 99 1011.3 7.6 E 13.0 0.8 15.0
14:54 8.0 7.9 99 1011.4 6.0 SE 13.0 0.8 15.0
14:55 7.9 7.8 99 1011.2 6.0 SE 13.0 0.8 15.0
14:56 7.9 7.8 99 1011.4 9.2 SE 12.1 0.8 15.0
14:57 7.9 7.8 99 1011.3 6.9 SE 10.7 0.8 15.0
14:59 7.9 7.8 99 1011.3 5.4 SE 10.7 0.0 15.0
15:00 8.0 7.9 99 1011.4 8.3 SE 10.7 0.8 15.1
15:01 8.0 7.9 99 1011.5 8.3 SE 9.2 0.8 15.1
15:02 8.0 7.9 99 1011.5 8.3 SE 9.2 0.8 15.1
15:03 8.0 7.9 99 1011.5 8.3 SE 9.2 0.8 15.1
15:04 8.0 7.9 99 1011.5 8.3 SE 9.2 0.8 15.1
15:05 7.9 7.8 99 1011.4 6.9 SE 9.2 0.0 15.1
15:06 7.9 7.8 99 1011.5 5.4 NE 9.2 0.0 15.1
15:07 7.9 7.8 99 1011.4 7.6 SE 8.3 0.0 15.1
15:08 7.9 7.8 99 1011.4 6.9 E 8.3 0.8 15.1
15:10 7.9 7.8 99 1011.4 7.6 W 8.3 0.8 15.1
15:11 7.9 7.8 99 1011.3 7.6 SE 8.3 0.8 15.1
15:13 7.9 7.8 99 1011.5 7.6 SE 8.3 0.0 15.1
15:14 7.9 7.8 99 1011.5 3.8 N 8.3 0.0 15.1
15:16 7.8 7.7 99 1011.4 6.9 E 7.6 0.0 15.1
15:17 7.8 7.7 99 1011.4 4.5 E 7.6 0.0 15.1
15:19 7.8 7.7 99 1011.5 5.4 SE 7.6 0.8 15.2
15:20 7.8 7.7 99 1011.4 6.9 SE 7.6 0.8 15.2
15:21 7.8 7.7 99 1011.4 7.6 SE 7.6 0.8 15.2
15:22 7.8 7.7 99 1011.5 3.8 SE 7.6 0.8 15.2
15:23 7.8 7.7 99 1011.7 4.5 SE 7.6 0.8 15.2
15:24 7.8 7.7 99 1011.5 7.6 SE 7.6 0.0 15.2
15:25 7.8 7.7 99 1011.5 3.1 E 7.6 0.0 15.2
15:26 7.8 7.7 99 1011.6 4.5 SE 7.6 0.0 15.2
15:27 7.8 7.7 99 1011.5 4.5 SE 7.6 0.0 15.2
15:28 7.8 7.7 99 1011.4 5.4 SE 7.6 0.8 15.2
15:29 7.8 7.7 99 1011.6 3.8 SE 7.6 0.8 15.2
15:30 7.8 7.7 99 1011.6 4.5 SE 7.6 0.8 15.2
15:31 7.8 7.7 99 1011.7 3.8 SE 7.6 0.8 15.3
15:32 7.7 7.6 99 1011.5 6.0 SE 7.6 1.5 15.3
15:33 7.8 7.7 99 1011.6 4.5 SE 7.6 0.8 15.3
15:35 7.8 7.7 99 1011.6 5.4 SE 6.0 0.8 15.3
15:36 7.7 7.6 99 1011.6 6.0 SE 6.0 0.8 15.3
15:37 7.8 7.7 99 1011.4 4.5 SE 6.0 0.0 15.3
15:38 7.8 7.7 99 1011.6 3.1 SE 6.0 0.8 15.4
15:39 7.8 7.7 99 1011.5 1.6 SE 6.0 0.8 15.4
15:40 7.8 7.7 99 1011.4 4.5 SE 6.0 0.8 15.4
15:41 7.7 7.6 99 1011.4 4.5 SE 7.6 0.8 15.4
15:42 7.7 7.6 99 1011.4 3.8 SE 7.6 0.8 15.4
15:43 7.8 7.7 99 1011.5 5.4 E 7.6 0.0 15.4
15:44 7.7 7.6 99 1011.4 4.5 SE 7.6 0.0 15.4
15:45 7.7 7.6 99 1011.5 3.8 NE 7.6 0.8 15.4
15:46 7.7 7.6 99 1011.6 4.5 SE 7.6 0.8 15.4
15:47 7.7 7.6 99 1011.4 5.4 SE 7.6 0.8 15.4
15:48 7.7 7.6 99 1011.4 7.6 SE 7.6 0.8 15.4
15:49 7.7 7.6 99 1011.6 6.0 SE 7.6 0.8 15.5
15:50 7.7 7.6 99 1011.5 8.3 SE 8.3 0.8 15.5
15:51 7.7 7.6 99 1011.4 7.6 SE 8.3 0.8 15.5
15:53 7.7 7.6 99 1011.5 7.6 SE 8.3 0.8 15.5
15:54 7.7 7.6 99 1011.4 3.8 SE 8.3 0.8 15.5
15:55 7.7 7.6 99 1011.4 3.8 SE 8.3 0.0 15.5
15:56 7.7 7.6 99 1011.4 3.8 SE 8.3 0.0 15.5
15:57 7.8 7.7 99 1011.4 6.0 SE 8.3 0.0 15.5
15:58 7.7 7.6 99 1011.4 6.9 SE 8.3 0.0 15.5
15:59 7.7 7.6 99 1011.4 3.8 SE 8.3 0.0 15.5
16:00 7.7 7.6 99 1011.4 3.1 SE 8.3 0.0 15.5
16:01 7.7 7.6 99 1011.4 3.1 SE 7.6 0.0 15.5
16:02 7.7 7.6 99 1011.4 3.1 SE 7.6 0.0 15.5
16:03 7.7 7.6 99 1011.3 3.1 SE 6.9 0.0 15.5
16:04 7.7 7.6 99 1011.3 3.1 SE 6.9 0.0 15.5
16:05 7.8 7.7 99 1011.3 6.0 E 6.9 0.0 15.6
16:07 7.8 7.7 99 1011.5 6.0 SE 6.9 0.8 15.6
16:08 7.7 7.6 99 1011.4 7.6 SE 7.6 0.8 15.6
16:09 7.7 7.6 99 1011.5 6.0 SE 7.6 0.8 15.6
16:10 7.7 7.6 99 1011.5 7.6 SE 9.2 0.8 15.6
16:12 7.7 7.6 99 1011.5 6.0 SE 9.2 0.0 15.6
16:13 7.7 7.6 99 1011.3 3.8 SE 9.2 0.0 15.6
16:14 7.7 7.6 99 1011.5 4.5 SE 9.2 0.0 15.6
16:16 7.7 7.6 99 1011.6 2.2 E 9.2 0.0 15.6
16:17 7.7 7.6 99 1011.5 1.6 E 9.2 0.0 15.6
16:19 7.7 7.6 99 1011.5 11.4 NE 11.4 0.0 15.6
16:20 7.7 7.6 99 1011.6 4.5 SE 11.4 0.0 15.6
16:21 7.7 7.6 99 1011.6 4.5 SE 11.4 0.0 15.6
16:22 7.7 7.6 99 1011.7 3.8 E 11.4 0.0 15.6
16:23 7.7 7.6 99 1011.5 3.1 NE 11.4 0.0 15.6
16:24 7.7 7.6 99 1011.7 3.8 N 11.4 0.0 15.6
16:25 7.7 7.6 99 1011.6 2.2 N 11.4 0.0 15.6
16:26 7.7 7.6 99 1011.8 3.8 NE 11.4 0.0 15.6
16:27 7.7 7.6 99 1011.7 3.8 NE 11.4 0.0 15.6
16:28 7.7 7.6 99 1011.7 3.1 N 11.4 0.0 15.6
16:29 7.7 7.6 99 1011.7 3.1 E 11.4 0.8 15.6
16:30 7.7 7.6 99 1011.7 4.5 E 4.5 0.8 15.6
16:31 7.7 7.6 99 1011.7 2.2 E 4.5 0.8 15.6
16:32 7.7 7.6 99 1011.7 3.1 E 4.5 0.8 15.6
16:33 7.6 7.5 99 1011.6 3.1 E 4.5 0.8 15.6
16:34 7.7 7.6 99 1011.7 2.2 E 4.5 0.0 15.6
16:35 7.7 7.6 99 1011.6 4.5 WSW 4.5 0.0 15.6
16:36 7.6 7.5 99 1011.6 3.1 NW 4.5 0.0 15.6
16:37 7.6 7.5 99 1011.6 3.8 NW 4.5 0.0 15.6
16:38 7.6 7.5 99 1011.7 3.1 NW 4.5 0.0 15.6
16:39 7.6 7.5 99 1011.6 3.1 NW 4.5 0.0 15.6
16:40 7.6 7.5 99 1011.7 1.6 NE 4.5 0.8 15.7
16:41 7.6 7.5 99 1011.7 1.6 NE 4.5 0.8 15.7
16:42 7.6 7.5 99 1011.7 3.8 E 4.5 0.8 15.7
16:43 7.6 7.5 99 1011.8 3.1 E 4.5 0.8 15.7
16:44 7.6 7.5 99 1011.7 4.5 NE 4.5 0.8 15.7
16:45 7.6 7.5 99 1011.6 3.8 NE 4.5 0.0 15.7
16:46 7.6 7.5 99 1011.7 2.2 NE 4.5 0.8 15.7
16:48 7.6 7.5 99 1011.7 3.8 NE 4.5 0.8 15.7
16:49 7.6 7.5 99 1011.7 4.5 NE 4.5 0.8 15.7
16:50 7.6 7.5 99 1011.9 3.1 NE 4.5 1.5 15.8
16:51 7.6 7.5 99 1011.7 4.5 N 4.5 0.8 15.8
16:52 7.6 7.5 99 1011.7 6.9 E 6.9 0.8 15.8
16:53 7.6 7.5 99 1011.8 4.5 NE 6.9 0.8 15.8
16:54 7.6 7.5 99 1011.6 4.5 NE 6.9 1.5 15.9
16:55 7.6 7.5 99 1011.6 9.2 NE 9.2 1.5 15.9
16:56 7.6 7.5 99 1011.7 6.9 NE 9.2 1.5 15.9
16:57 7.6 7.5 99 1011.7 3.8 N 9.2 1.5 15.9
16:58 7.6 7.5 99 1011.7 6.0 SE 9.2 2.3 16.0
16:59 7.6 7.5 99 1011.8 5.4 NE 9.2 1.5 16.0
17:00 7.6 7.5 99 1011.9 3.8 NE 9.2 0.8 16.0
17:01 7.6 7.5 99 1011.8 3.8 NE 9.2 0.8 16.0
17:03 7.6 7.5 99 1011.7 3.8 NE 9.2 0.0 16.0
17:04 7.6 7.5 99 1011.7 3.8 NE 9.2 0.0 16.0
17:05 7.6 7.5 99 1011.7 3.1 NE 6.9 0.0 16.1
17:06 7.6 7.5 99 1011.8 4.5 N 6.0 1.5 16.1
17:07 7.6 7.5 99 1011.8 6.0 E 6.0 1.5 16.1
17:08 7.6 7.5 99 1011.9 3.8 N 6.0 1.5 16.1
17:10 7.6 7.5 99 1012.0 4.5 NE 6.0 1.5 16.1
17:12 7.5 7.4 99 1011.8 3.8 SE 6.0 0.0 16.1
17:13 7.5 7.4 99 1011.9 2.2 E 6.0 0.0 16.1
17:15 7.5 7.4 99 1011.8 5.4 NE 6.0 0.0 16.1
17:16 7.4 7.3 99 1012.0 4.5 NW 6.0 0.0 16.1
17:17 7.5 7.4 99 1011.9 6.9 E 6.9 0.0 16.1
17:19 7.4 7.3 99 1011.9 3.8 NE 6.9 0.0 16.1
17:20 7.4 7.3 99 1011.8 3.8 SE 6.9 0.0 16.1
17:22 7.3 7.2 99 1011.8 4.5 SE 6.9 0.0 16.1
17:23 7.3 7.2 99 1011.9 3.8 NE 6.9 0.0 16.1
17:24 7.3 7.2 99 1011.9 6.9 NE 6.9 0.0 16.1
17:25 7.3 7.2 99 1011.9 5.4 SE 6.9 0.0 16.1
17:27 7.3 7.2 99 1011.9 3.1 NE 6.9 0.0 16.2
17:28 7.2 7.1 99 1011.8 10.7 E 10.7 0.8 16.2
17:29 7.2 7.1 99 1011.9 3.8 NE 10.7 0.8 16.2
17:30 7.3 7.2 99 1011.8 5.4 NE 10.7 0.8 16.2
17:31 7.2 7.1 99 1011.9 4.5 N 10.7 0.8 16.2
17:33 7.2 7.1 99 1011.8 3.8 NE 10.7 0.0 16.2
17:34 7.2 7.1 99 1011.9 6.0 E 10.7 0.0 16.2
17:35 7.2 7.1 99 1011.8 7.6 NE 10.7 0.0 16.2
17:36 7.2 7.1 99 1011.9 5.4 SE 10.7 0.8 16.3
17:37 7.2 7.1 99 1011.9 6.0 E 10.7 0.8 16.3
17:39 7.2 7.1 99 1011.9 3.8 NE 7.6 0.8 16.3
17:40 7.1 7.0 99 1011.9 5.4 N 7.6 0.8 16.3
17:41 7.1 7.0 99 1011.9 6.0 NW 7.6 0.0 16.3
17:42 7.1 7.0 99 1011.9 8.3 E 8.3 0.0 16.3
17:43 7.1 7.0 99 1011.8 3.8 SE 8.3 0.0 16.3
17:44 7.0 6.9 99 1011.8 4.5 E 8.3 0.0 16.3
17:45 7.0 6.9 99 1011.8 9.2 NE 9.2 0.0 16.3
17:47 7.0 6.9 99 1012.0 5.4 E 9.2 0.0 16.3
17:48 7.0 6.9 99 1011.8 4.5 NE 9.2 0.8 16.3
17:49 7.0 6.9 99 1011.9 7.6 SE 9.2 0.8 16.3
17:50 7.0 6.9 99 1011.9 6.0 E 9.2 0.8 16.3
17:52 7.0 6.9 99 1011.9 6.0 N 9.2 0.8 16.3
17:53 7.0 6.9 99 1011.9 7.6 NE 9.2 0.0 16.3
17:54 6.9 6.8 99 1012.0 8.3 N 9.2 0.0 16.3
17:55 6.9 6.8 99 1011.9 8.3 SE 9.2 0.0 16.3
17:56 6.9 6.8 99 1012.0 10.7 SE 10.7 0.0 16.4
17:58 6.9 6.8 99 1012.0 9.2 SE 10.7 0.8 16.4
17:59 6.9 6.8 99 1012.0 8.3 SE 10.7 0.8 16.4
18:00 6.8 6.7 99 1012.1 6.9 SE 10.7 0.8 16.4
18:01 6.8 6.7 99 1012.1 6.9 SE 10.7 0.8 16.4
18:02 6.8 6.7 99 1012.1 6.9 SE 10.7 0.0 16.4
18:04 6.8 6.7 99 1012.2 6.9 SE 10.7 0.0 16.4
18:05 6.7 6.6 99 1012.0 9.2 SE 10.7 0.0 16.4
18:07 6.7 6.6 99 1012.1 6.0 E 9.2 0.0 16.4
18:09 6.7 6.6 99 1012.2 5.4 SE 9.2 0.8 16.4
18:10 6.6 6.5 99 1012.1 10.7 N 10.7 0.8 16.4
18:12 6.6 6.5 99 1012.1 18.3 SE 18.3 0.8 16.4
18:13 6.6 6.5 99 1012.1 13.6 E 18.3 0.0 16.4
18:15 6.6 6.5 99 1012.0 10.7 SE 18.3 0.8 16.5
18:17 6.6 6.5 99 1012.2 6.9 E 18.3 0.8 16.5
18:18 6.6 6.5 99 1012.1 7.6 N 18.3 0.8 16.5
18:19 6.5 6.4 99 1012.0 10.7 SE 18.3 0.8 16.5
18:20 6.5 6.4 99 1012.1 14.5 S 18.3 0.0 16.5
18:21 6.5 6.4 99 1012.2 6.9 NE 18.3 0.0 16.5
18:22 6.5 6.4 99 1012.2 9.2 SE 14.5 0.0 16.5
18:23 6.5 6.4 99 1012.3 11.4 NW 14.5 0.0 16.5
18:24 6.5 6.4 99 1012.3 12.1 E 14.5 0.0 16.6
18:26 6.5 6.4 99 1012.3 6.0 N 14.5 0.8 16.6
18:27 6.5 6.4 99 1012.1 6.0 N 14.5 0.8 16.6
18:28 6.5 6.4 99 1012.2 5.4 WSW 14.5 0.8 16.6
18:29 6.5 6.4 99 1012.2 11.4 NE 14.5 0.8 16.6
18:30 6.5 6.4 99 1012.3 9.2 SE 12.1 0.0 16.6
18:31 6.5 6.4 99 1012.4 10.7 SE 12.1 0.0 16.6
18:32 6.5 6.4 99 1012.4 9.2 E 12.1 0.0 16.6
18:33 6.5 6.4 99 1012.4 7.6 SE 12.1 0.8 16.6
18:34 6.5 6.4 99 1012.4 9.2 SE 12.1 0.8 16.6
18:35 6.5 6.4 99 1012.4 12.1 SE 12.1 0.8 16.6
18:37 6.5 6.4 99 1012.3 9.2 SE 12.1 0.8 16.6
18:38 6.5 6.4 99 1012.3 8.3 SE 12.1 0.0 16.6
18:39 6.6 6.5 99 1012.4 8.3 SE 12.1 0.0 16.6
18:40 6.5 6.4 99 1012.3 7.6 SE 12.1 0.0 16.6
18:41 6.5 6.4 99 1012.3 9.8 N 12.1 0.0 16.6
18:42 6.5 6.4 99 1012.4 8.3 SE 12.1 0.0 16.6
18:43 6.5 6.4 99 1012.3 11.4 SE 12.1 0.0 16.6
18:44 6.5 6.4 99 1012.5 12.1 SE 12.1 0.0 16.6
18:45 6.5 6.4 99 1012.4 9.8 SE 12.1 0.0 16.7
18:47 6.5 6.4 99 1012.4 6.9 SE 12.1 0.8 16.7
18:48 6.5 6.4 99 1012.5 4.5 SE 12.1 0.8 16.7
18:49 6.5 6.4 99 1012.5 7.6 SE 12.1 0.8 16.7
18:50 6.5 6.4 99 1012.4 6.9 SE 12.1 0.8 16.7
18:51 6.5 6.4 99 1012.5 6.0 E 12.1 0.0 16.7
18:52 6.5 6.4 99 1012.5 13.6 SE 13.6 0.0 16.8
18:53 6.5 6.4 99 1012.5 9.2 SE 13.6 0.8 16.8
18:54 6.5 6.4 99 1012.6 6.0 SE 13.6 0.8 16.8
18:56 6.5 6.4 99 1012.7 8.3 SE 13.6 0.8 16.8
18:57 6.5 6.4 99 1012.7 4.5 SE 13.6 0.8 16.8
18:58 6.5 6.4 99 1012.6 11.4 SE 13.6 0.0 16.8
18:59 6.5 6.4 99 1012.6 7.6 SE 13.6 0.0 16.8
19:00 6.5 6.4 99 1012.7 8.3 E 13.6 0.0 16.8
19:01 6.5 6.4 99 1012.6 8.3 E 13.6 0.0 16.8
19:02 6.5 6.4 99 1012.7 8.3 E 13.6 0.0 16.8
19:03 6.5 6.4 99 1012.6 8.3 E 11.4 0.0 16.8
19:05 6.5 6.4 99 1012.8 8.3 E 11.4 0.0 16.8
19:06 6.5 6.4 99 1012.8 8.3 S 11.4 0.0 16.8
19:07 6.5 6.4 99 1012.7 6.9 NE 11.4 0.8 16.8
19:09 6.5 6.4 99 1012.8 8.3 E 8.3 0.8 16.8
19:11 6.5 6.4 99 1012.9 6.9 E 9.8 0.8 16.8
19:12 6.5 6.4 99 1012.9 10.7 SE 10.7 0.0 16.8
19:14 6.5 6.4 99 1012.9 7.6 SE 10.7 0.0 16.8
19:15 6.4 6.3 99 1012.9 3.1 E 10.7 0.0 16.8
19:17 6.5 6.4 99 1012.8 7.6 E 10.7 0.0 16.8
19:18 6.4 6.3 99 1012.8 9.8 SE 10.7 0.0 16.9
19:19 6.4 6.3 99 1012.8 6.0 SE 10.7 0.8 16.9
19:20 6.5 6.4 99 1012.8 5.4 SE 10.7 0.8 16.9
19:21 6.5 6.4 99 1012.7 2.2 SE 10.7 0.8 16.9
19:23 6.4 6.3 99 1012.7 6.0 SE 9.8 0.8 16.9
19:24 6.4 6.3 99 1012.6 4.5 SE 9.8 0.0 16.9
19:25 6.4 6.3 99 1012.8 4.5 SE 9.8 0.0 16.9
19:26 6.5 6.4 99 1012.8 2.2 E 9.8 0.0 16.9
19:27 6.5 6.4 99 1012.7 3.8 NE 9.8 0.0 16.9
19:28 6.4 6.3 99 1012.7 6.9 SE 7.6 0.0 16.9
19:30 6.5 6.4 99 1012.9 7.6 E 7.6 0.0 16.9
19:31 6.5 6.4 99 1012.8 6.0 W 7.6 0.0 16.9
19:32 6.4 6.3 99 1012.8 4.5 SE 7.6 0.0 16.9
19:33 6.4 6.3 99 1012.9 4.5 SE 7.6 0.0 16.9
19:34 6.4 6.3 99 1012.7 4.5 NE 7.6 0.0 16.9
19:35 6.4 6.3 99 1012.7 5.4 NE 7.6 0.0 16.9
19:36 6.4 6.3 99 1012.8 4.5 N 7.6 0.0 16.9
19:37 6.4 6.3 99 1012.9 3.8 SE 7.6 0.0 16.9
19:38 6.4 6.3 99 1012.7 3.8 E 7.6 0.0 16.9
19:40 6.4 6.3 99 1012.9 3.1 SE 7.6 0.0 16.9
19:41 6.4 6.3 99 1012.8 3.8 NE 6.0 0.0 16.9
19:42 6.4 6.3 99 1012.8 3.8 E 5.4 0.0 16.9
19:43 6.4 6.3 99 1012.8 8.3 SE 8.3 0.0 16.9
19:44 6.4 6.3 99 1012.8 6.9 SE 8.3 0.0 16.9
19:45 6.4 6.3 99 1012.8 6.0 N 8.3 0.0 16.9
19:46 6.4 6.3 99 1012.9 2.2 E 8.3 0.8 16.9
19:48 6.4 6.3 99 1012.9 4.5 NE 8.3 0.8 16.9
19:49 6.4 6.3 99 1012.8 3.1 E 8.3 0.8 16.9
19:50 6.4 6.3 99 1012.8 3.1 SE 8.3 0.8 16.9
19:51 6.4 6.3 99 1013.0 3.1 S 8.3 0.0 16.9
19:53 6.5 6.4 99 1012.8 3.1 N 8.3 0.0 16.9
19:54 6.4 6.3 99 1012.8 4.5 N 6.9 0.0 16.9
19:55 6.5 6.4 99 1013.0 3.1 E 6.0 0.0 16.9
19:56 6.4 6.3 99 1012.9 5.4 NE 6.0 0.0 16.9
19:58 6.5 6.4 99 1013.1 6.0 NE 6.0 0.0 16.9
19:59 6.5 6.4 99 1012.9 4.5 NE 6.0 0.0 16.9
20:00 6.5 6.4 99 1013.1 11.4 S 11.4 0.0 16.9
20:02 6.5 6.4 99 1013.1 11.4 S 11.4 0.0 16.9
20:03 6.5 6.4 99 1013.1 11.4 S 11.4 0.0 16.9
20:05 6.5 6.4 99 1013.1 11.4 S 11.4 0.0 16.9
20:06 6.5 6.4 99 1013.1 9.8 NE 11.4 0.0 16.9
20:07 6.5 6.4 99 1013.1 6.0 SE 11.4 0.0 16.9
20:08 6.5 6.4 99 1013.1 3.8 E 11.4 0.0 16.9
20:09 6.5 6.4 99 1013.2 4.5 E 11.4 0.0 16.9
20:10 6.5 6.4 99 1013.2 6.9 NE 11.4 0.0 16.9
20:12 6.5 6.4 99 1013.1 6.9 SE 11.4 0.8 17.0
20:14 6.5 6.4 99 1013.2 10.7 E 12.1 0.8 17.0
20:15 6.5 6.4 99 1013.2 9.8 SE 12.1 0.8 17.0
20:17 6.5 6.4 99 1013.2 7.6 SE 12.1 0.0 17.0
20:18 6.5 6.4 99 1013.2 4.5 SE 12.1 0.0 17.0
20:20 6.5 6.4 99 1013.2 8.3 SE 12.1 0.0 17.0
20:21 6.5 6.4 99 1013.2 6.9 SE 12.1 0.0 17.0
20:23 6.5 6.4 99 1013.3 11.4 SE 11.4 0.0 17.0
20:25 6.5 6.4 99 1013.4 10.7 SE 11.4 0.0 17.0
20:26 6.4 6.3 99 1013.3 9.2 SE 11.4 0.0 17.0
20:27 6.4 6.3 99 1013.3 7.6 SE 11.4 0.0 17.0
20:28 6.4 6.3 99 1013.3 7.6 SE 11.4 0.0 17.0
20:29 6.4 6.3 99 1013.3 8.3 SE 11.4 0.0 17.0
20:30 6.5 6.4 99 1013.4 5.4 SE 11.4 0.0 17.0
20:31 6.5 6.4 99 1013.4 9.2 SE 11.4 0.0 17.0
20:32 6.4 6.3 99 1013.4 8.3 SE 11.4 0.0 17.0
20:33 6.5 6.4 99 1013.4 7.6 SE 11.4 0.0 17.0
20:35 6.5 6.4 99 1013.4 10.7 SE 10.7 0.0 17.0
20:36 6.5 6.4 99 1013.5 5.4 E 10.7 0.8 17.1
20:37 6.5 6.4 99 1013.4 9.2 NE 10.7 0.8 17.1
20:39 6.5 6.4 99 1013.5 8.3 SE 10.7 0.8 17.1
20:40 6.5 6.4 99 1013.5 6.0 SE 10.7 0.8 17.1
20:41 6.5 6.4 99 1013.4 6.9 SE 10.7 0.0 17.1
20:42 6.5 6.4 99 1013.4 7.6 SE 10.7 0.0 17.1
20:43 6.5 6.4 99 1013.4 10.7 SE 10.7 0.0 17.1
20:44 6.4 6.3 99 1013.4 6.9 SE 10.7 0.0 17.1
20:45 6.4 6.3 99 1013.4 6.0 SE 10.7 0.8 17.1
20:46 6.4 6.3 99 1013.4 8.3 E 10.7 0.8 17.1
20:48 6.4 6.3 99 1013.4 7.6 E 10.7 0.8 17.1
20:49 6.4 6.3 99 1013.4 6.9 SE 10.7 0.8 17.1
20:50 6.4 6.3 99 1013.3 7.6 SE 10.7 0.0 17.1
20:51 6.4 6.3 99 1013.5 10.7 SE 10.7 0.0 17.1
20:53 6.4 6.3 99 1013.3 8.3 SE 10.7 0.0 17.1
20:54 6.4 6.3 99 1013.3 6.9 SE 10.7 0.0 17.1
20:55 6.4 6.3 99 1013.3 9.2 SE 10.7 0.0 17.1
20:56 6.4 6.3 99 1013.4 6.9 SE 10.7 0.0 17.1
20:58 6.4 6.3 99 1013.4 6.9 SE 10.7 0.0 17.1
20:59 6.4 6.3 99 1013.4 6.0 SE 10.7 0.0 17.1
21:00 6.4 6.3 99 1013.3 6.9 SE 10.7 0.0 17.1
21:01 6.4 6.3 99 1013.4 6.9 SE 10.7 0.0 17.1
21:03 6.4 6.3 99 1013.5 6.9 SE 9.2 0.0 17.1
21:04 6.4 6.3 99 1013.3 6.9 SE 9.2 0.0 17.1
21:05 6.4 6.3 99 1013.4 4.5 SE 9.2 0.0 17.2
21:07 6.4 6.3 99 1013.4 6.9 SE 9.8 0.8 17.2
21:08 6.4 6.3 99 1013.3 7.6 SE 9.8 0.8 17.2
21:10 6.4 6.3 99 1013.5 4.5 SE 9.8 0.8 17.2
21:12 6.4 6.3 99 1013.4 6.0 SE 9.8 0.0 17.2
21:13 6.4 6.3 99 1013.4 5.4 SE 9.8 0.0 17.2
21:15 6.3 6.2 99 1013.5 6.0 SE 9.8 0.0 17.2
21:17 6.3 6.2 99 1013.6 8.3 E 9.2 0.8 17.3
21:19 6.3 6.2 99 1013.5 8.3 SE 9.2 0.8 17.3
21:20 6.3 6.2 99 1013.4 5.4 SE 9.2 0.8 17.3
21:22 6.3 6.2 99 1013.6 6.0 SE 9.2 0.0 17.3
21:24 6.3 6.2 99 1013.4 6.0 SE 9.2 0.0 17.3
21:25 6.3 6.2 99 1013.4 3.1 SE 9.2 0.0 17.3
21:26 6.3 6.2 99 1013.5 3.8 SE 9.2 0.0 17.3
21:27 6.3 6.2 99 1013.5 6.0 SE 8.3 0.0 17.3
21:28 6.3 6.2 99 1013.5 4.5 SE 8.3 0.0 17.3
21:33 6.3 6.2 99 1013.6 6.9 E 8.3 0.0 17.3
21:34 6.3 6.2 99 1013.5 6.0 E 7.6 0.0 17.3
21:35 6.3 6.2 99 1013.6 7.6 E 7.6 0.0 17.3
21:36 6.3 6.2 99 1013.6 6.9 SE 7.6 0.0 17.3
21:37 6.3 6.2 99 1013.7 6.9 SE 7.6 0.0 17.3
21:38 6.3 6.2 99 1013.5 5.4 SE 7.6 0.0 17.3
21:39 6.3 6.2 99 1013.5 6.0 SE 7.6 0.0 17.3
21:40 6.3 6.2 99 1013.4 6.0 SE 7.6 0.0 17.3
21:42 6.3 6.2 99 1013.6 4.5 SE 7.6 0.0 17.3
21:43 6.3 6.2 99 1013.6 3.1 SE 7.6 0.0 17.3
21:44 6.3 6.2 99 1013.5 9.2 SE 9.2 0.0 17.3
21:45 6.3 6.2 99 1013.5 5.4 E 9.2 0.0 17.3
21:46 6.3 6.2 99 1013.5 5.4 SE 9.2 0.0 17.3
21:47 6.3 6.2 99 1013.5 5.4 SE 9.2 0.0 17.3
21:48 6.3 6.2 99 1013.6 6.9 SE 9.2 0.0 17.3
21:49 6.3 6.2 99 1013.5 6.0 SE 9.2 0.0 17.3
21:50 6.3 6.2 99 1013.5 6.9 SE 9.2 0.0 17.3
21:51 6.3 6.2 99 1013.5 6.0 SE 9.2 0.0 17.3
21:52 6.3 6.2 99 1013.6 5.4 SE 9.2 0.0 17.3
21:53 6.3 6.2 99 1013.5 8.3 SE 9.2 0.0 17.3
21:55 6.3 6.2 99 1013.7 6.0 SE 8.3 0.0 17.3
21:56 6.3 6.2 99 1013.6 6.9 SE 8.3 0.8 17.3
21:57 6.3 6.2 99 1013.6 6.0 SE 8.3 0.8 17.3
21:58 6.3 6.2 99 1013.6 4.5 SE 8.3 0.8 17.3
21:59 6.3 6.2 99 1013.6 4.5 E 8.3 0.8 17.3
22:00 6.3 6.2 99 1013.6 3.8 E 8.3 0.8 17.3
22:02 6.3 6.2 99 1013.5 3.8 E 8.3 0.0 17.3
22:03 6.3 6.2 99 1013.6 3.8 E 8.3 0.0 17.3
22:04 6.3 6.2 99 1013.7 3.8 E 6.9 0.0 17.3
22:05 6.3 6.2 99 1013.5 4.5 SE 6.9 0.0 17.3
22:06 6.3 6.2 99 1013.7 6.0 SE 6.9 0.0 17.3
22:07 6.3 6.2 99 1013.7 5.4 SE 6.0 0.0 17.3
22:09 6.3 6.2 99 1013.7 6.0 SE 6.0 0.0 17.3
22:11 6.3 6.2 99 1013.7 4.5 SE 6.0 0.0 17.3
22:13 6.3 6.2 99 1013.6 2.2 SE 6.0 0.0 17.3
22:15 6.3 6.2 99 1013.7 5.4 SE 6.0 0.0 17.3
22:16 6.3 6.2 99 1013.6 4.5 SE 6.0 0.0 17.3
22:18 6.3 6.2 99 1013.6 4.5 SE 6.0 0.0 17.3
22:19 6.3 6.2 99 1013.6 4.5 SE 6.0 0.0 17.3
22:21 6.3 6.2 99 1013.7 3.8 SE 6.0 0.0 17.3
22:23 6.3 6.2 99 1013.6 4.5 E 6.0 0.0 17.3
22:24 6.3 6.2 99 1013.7 3.8 SE 6.0 0.0 17.3
22:26 6.3 6.2 99 1013.7 3.8 SE 4.5 0.0 17.3
22:28 6.3 6.2 99 1013.7 4.5 SE 4.5 0.0 17.3
22:29 6.3 6.2 99 1013.7 3.1 SE 4.5 0.0 17.3
22:31 6.3 6.2 99 1013.6 5.4 SE 5.4 0.0 17.3
22:32 6.3 6.2 99 1013.7 4.5 SE 5.4 0.0 17.3
22:34 6.3 6.2 99 1013.7 3.8 SE 5.4 0.0 17.3
22:35 6.3 6.2 99 1013.6 2.2 SE 5.4 0.0 17.3
22:36 6.3 6.2 99 1013.6 1.6 SE 5.4 0.0 17.3
22:37 6.3 6.2 99 1013.7 4.5 SE 5.4 0.0 17.3
22:38 6.3 6.2 99 1013.7 2.2 SE 5.4 0.0 17.3
22:39 6.3 6.2 99 1013.7 2.2 SE 5.4 0.0 17.3
22:40 6.3 6.2 99 1013.7 4.5 SE 5.4 0.0 17.3
22:41 6.3 6.2 99 1013.7 3.1 SE 4.5 0.0 17.3
22:42 6.3 6.2 99 1013.7 3.1 SE 4.5 0.0 17.3
22:44 6.3 6.2 99 1013.6 4.5 E 4.5 0.0 17.3
22:45 6.3 6.2 99 1013.8 5.4 SE 5.4 0.0 17.3
22:46 6.3 6.2 99 1013.7 4.5 SE 5.4 0.0 17.3
22:47 6.3 6.2 99 1013.8 4.5 SE 5.4 0.0 17.3
22:49 6.3 6.2 99 1013.7 6.9 SE 6.9 0.0 17.3
22:50 6.3 6.2 99 1013.7 4.5 SE 6.9 0.0 17.3
22:51 6.3 6.2 99 1013.7 4.5 SE 6.9 0.0 17.3
22:52 6.3 6.2 99 1013.7 3.8 SE 6.9 0.0 17.3
22:53 6.3 6.2 99 1013.7 3.8 SE 6.9 0.0 17.3
22:54 6.3 6.2 99 1013.8 4.5 SE 6.9 0.0 17.3
22:55 6.3 6.2 99 1013.8 3.1 SE 6.9 0.0 17.3
22:57 6.3 6.2 99 1013.8 4.5 SE 6.9 0.0 17.3
22:58 6.3 6.2 99 1013.8 3.8 SE 6.9 0.0 17.3
22:59 6.3 6.2 99 1013.8 4.5 SE 6.9 0.0 17.3
23:00 6.3 6.2 99 1013.9 4.5 SE 6.0 0.0 17.3
23:01 6.3 6.2 99 1013.7 4.5 SE 6.0 0.0 17.3
23:02 6.3 6.2 99 1014.0 4.5 SE 6.0 0.0 17.3
23:04 6.3 6.2 99 1014.0 4.5 SE 6.0 0.0 17.3
23:05 6.3 6.2 99 1013.9 3.8 SE 4.5 0.0 17.3
23:06 6.3 6.2 99 1014.0 4.5 SE 4.5 0.0 17.3
23:07 6.3 6.2 99 1014.0 4.5 SE 4.5 0.0 17.3
23:08 6.3 6.2 99 1013.9 4.5 SE 4.5 0.0 17.3
23:09 6.3 6.2 99 1013.9 3.1 SE 4.5 0.0 17.3
23:11 6.3 6.2 99 1013.9 2.2 N 4.5 0.0 17.3
23:13 6.3 6.2 99 1013.9 3.1 N 4.5 0.0 17.3
23:14 6.3 6.2 99 1014.0 3.1 E 4.5 0.0 17.3
23:16 6.3 6.2 99 1014.0 3.1 SE 4.5 0.0 17.3
23:18 6.3 6.2 99 1014.0 3.1 SE 5.4 0.0 17.3
23:19 6.3 6.2 99 1013.9 3.8 SE 5.4 0.0 17.3
23:21 6.3 6.2 99 1014.0 5.4 SE 5.4 0.0 17.3
23:23 6.3 6.2 99 1014.0 3.1 SE 5.4 0.0 17.3
23:24 6.3 6.2 99 1014.1 2.2 SE 5.4 0.0 17.3
23:26 6.3 6.2 99 1014.0 3.8 SE 5.4 0.0 17.3
23:27 6.3 6.2 99 1013.9 3.8 SE 5.4 0.0 17.3
23:28 6.4 6.3 99 1013.9 3.1 NE 5.4 0.0 17.3
23:30 6.3 6.2 99 1014.1 3.8 SE 5.4 0.0 17.3
23:31 6.3 6.2 99 1014.1 2.2 SE 5.4 0.0 17.3
23:32 6.3 6.2 99 1014.1 5.4 SE 5.4 0.0 17.3
23:33 6.4 6.3 99 1014.0 3.8 SE 5.4 0.0 17.3
23:34 6.4 6.3 99 1014.1 3.8 SE 5.4 0.0 17.3
23:35 6.4 6.3 99 1014.1 3.1 E 5.4 0.0 17.3
23:36 6.4 6.3 99 1014.0 4.5 SE 5.4 0.0 17.3
23:37 6.4 6.3 99 1014.2 3.8 SE 5.4 0.0 17.3
23:38 6.4 6.3 99 1014.1 3.8 SE 5.4 0.0 17.3
23:40 6.4 6.3 99 1014.1 1.6 SE 5.4 0.0 17.3
23:41 6.4 6.3 99 1014.0 3.1 SE 5.4 0.0 17.3
23:42 6.4 6.3 99 1014.2 4.5 SE 5.4 0.0 17.3
23:43 6.4 6.3 99 1014.1 3.8 SE 4.5 0.0 17.3
23:44 6.4 6.3 99 1014.1 4.5 SE 4.5 0.0 17.3
23:45 6.4 6.3 99 1014.1 3.1 SE 4.5 0.0 17.3
23:46 6.4 6.3 99 1014.1 3.1 E 7.6 0.0 17.3
23:47 6.4 6.3 99 1013.9 2.2 E 7.6 0.0 17.3
23:49 6.4 6.3 99 1014.0 3.1 SE 7.6 0.0 17.3
23:50 6.4 6.3 99 1014.0 3.1 SE 7.6 0.0 17.3
23:51 6.4 6.3 99 1014.0 1.6 SE 7.6 0.0 17.3
23:52 6.4 6.3 99 1014.0 2.2 SE 7.6 0.0 17.3
23:53 6.5 6.4 99 1014.0 3.1 SE 7.6 0.0 17.3
23:54 6.4 6.3 99 1014.0 5.4 SE 7.6 0.0 17.3
23:56 6.5 6.4 99 1013.9 3.1 SE 7.6 0.0 17.3
23:57 6.5 6.4 99 1014.1 3.1 SE 5.4 0.0 17.3
23:59 6.5 6.4 99 1013.9 3.1 SE 5.4 0.0 17.3

UK - WEATHER STATION TOPSITES - UK World Weather Websites

This is a private weather station, never base important decisions or events on data from this weather station. Although every effort has been made to make the data as accurate as possible it does not meet MetOffice standards. It is proved as a guide of local weather conditions. We accept no liability for any loss which may arise from use of the data.

Copyright © Carnkie Weather 2009 - 2018.